EW1734 Weather Reports


Display with metric or nautical units.
time (UTC)temp
F
wind
direction
speed
MPH
gust
MPH
rain 1hr
in
rain 24hr
in
rain mn
in
humidity
%
barometer
mb
20260508121123 54 55 2.0 0.0 0.00 0.00 0.00 88 1014.5
20260508121040 53 57 2.0 2.0 0.00 0.00 0.00 90 1015.8
20260508120929 54 55 2.0 2.0 0.00 0.00 0.00 88 1014.5
20260508120839 54 5 0.0 0.0 0.00 0.00 0.00 88 1014.8
20260508120803 54 5 0.0 0.0 0.00 0.00 0.00 88 1014.8
20260508120727 54 5 0.0 0.0 0.00 0.00 0.00 88 1014.8
20260508120650 54 5 0.0 0.0 0.00 0.00 0.00 88 1014.8
20260508120626 54 5 0.0 0.0 0.00 0.00 0.00 88 1014.8
20260508120603 55 5 0.0 0.0 0.00 0.00 0.00 88 1014.8
20260508120537 53 66 2.0 3.0 0.00 0.00 0.00 90 1015.7
20260508120042 54 5 0.0 0.0 0.00 0.00 0.00 88 1014.8
20260508120035 53 70 1.0 2.0 0.00 0.00 0.00 90 1015.6
20260508120005 54 5 0.0 0.0 0.00 0.00 0.00 88 1014.8
20260508115942 54 5 0.0 0.0 0.00 0.00 0.00 88 1014.8
20260508115912 55 5 0.0 1.0 0.00 0.00 0.00 88 1014.8
20260508115823 55 73 2.0 0.0 0.00 0.00 0.00 88 1014.8
20260508115746 55 73 2.0 0.0 0.00 0.00 0.00 88 1014.8
20260508115710 55 73 2.0 0.0 0.00 0.00 0.00 88 1014.8
20260508115627 55 73 2.0 0.0 0.00 0.00 0.00 88 1014.8
20260508115550 55 73 2.0 0.0 0.00 0.00 0.00 88 1014.8
20260508115532 53 37 2.0 3.0 0.00 0.00 0.00 90 1015.7
20260508115513 55 73 2.0 0.0 0.00 0.00 0.00 88 1014.8
20260508115437 55 73 2.0 0.0 0.00 0.00 0.00 88 1014.8
20260508115400 55 73 2.0 0.0 0.00 0.00 0.00 88 1014.8
20260508115318 55 73 2.0 0.0 0.00 0.00 0.00 88 1014.8
20260508115124 55 73 2.0 2.0 0.00 0.00 0.00 88 1014.8
20260508115029 53 65 2.0 3.0 0.00 0.00 0.00 90 1015.6
20260508114910 55 63 1.0 0.0 0.00 0.00 0.00 88 1014.9
20260508114703 55 63 1.0 0.0 0.00 0.00 0.00 87 1014.9
20260508114627 55 63 1.0 0.0 0.00 0.00 0.00 87 1014.9
20260508114550 55 63 1.0 0.0 0.00 0.00 0.00 87 1014.9
20260508114526 53 43 2.0 2.0 0.00 0.00 0.00 90 1015.6
20260508114514 55 63 1.0 0.0 0.00 0.00 0.00 87 1014.9
20260508114437 55 63 1.0 0.0 0.00 0.00 0.00 87 1014.9
20260508114401 55 63 1.0 0.0 0.00 0.00 0.00 87 1014.9
20260508114324 55 63 1.0 0.0 0.00 0.00 0.00 87 1014.9
20260508114131 55 63 1.0 2.0 0.00 0.00 0.00 87 1014.9
20260508114035 55 53 2.0 0.0 0.00 0.00 0.00 87 1014.8
20260508114022 53 68 2.0 2.0 0.00 0.00 0.00 89 1015.6
20260508113950 55 53 2.0 0.0 0.00 0.00 0.00 87 1014.8
20260508113914 55 53 2.0 0.0 0.00 0.00 0.00 87 1014.8
20260508113837 55 53 2.0 0.0 0.00 0.00 0.00 87 1014.8
20260508113520 53 93 1.0 1.0 0.00 0.00 0.00 89 1015.7
20260508113448 55 53 2.0 0.0 0.00 0.00 0.00 87 1014.8
20260508113405 55 53 2.0 0.0 0.00 0.00 0.00 87 1014.8
20260508113328 55 53 2.0 0.0 0.00 0.00 0.00 87 1014.8
20260508113305 55 53 2.0 0.0 0.00 0.00 0.00 87 1014.8
20260508113234 55 53 2.0 2.0 0.00 0.00 0.00 87 1014.8
20260508113144 55 60 2.0 0.0 0.00 0.00 0.00 87 1014.8
20260508113017 53 69 2.0 2.0 0.00 0.00 0.00 89 1015.4
20260508112931 55 60 2.0 0.0 0.00 0.00 0.00 87 1014.8
20260508112848 55 60 2.0 0.0 0.00 0.00 0.00 87 1014.8
20260508112811 55 60 2.0 0.0 0.00 0.00 0.00 87 1014.8
20260508112735 55 60 2.0 0.0 0.00 0.00 0.00 87 1014.8
20260508112651 55 60 2.0 0.0 0.00 0.00 0.00 87 1014.8
20260508112615 55 60 2.0 0.0 0.00 0.00 0.00 87 1014.8
20260508112551 55 60 2.0 0.0 0.00 0.00 0.00 87 1014.8
20260508112513 53 45 2.0 3.0 0.00 0.00 0.00 89 1015.4
20260508112357 55 60 2.0 0.0 0.00 0.00 0.00 86 1014.8
20260508112327 55 60 2.0 2.0 0.00 0.00 0.00 86 1014.8
20260508112238 55 87 2.0 0.0 0.00 0.00 0.00 86 1014.9
20260508112201 55 87 2.0 0.0 0.00 0.00 0.00 86 1014.9
20260508112125 55 87 2.0 0.0 0.00 0.00 0.00 86 1014.9
20260508112048 55 87 2.0 0.0 0.00 0.00 0.00 86 1014.9
20260508112010 54 57 1.0 2.0 0.00 0.00 0.00 89 1015.4
20260508111822 55 87 2.0 0.0 0.00 0.00 0.00 86 1014.9
20260508111745 55 87 2.0 0.0 0.00 0.00 0.00 86 1014.9
20260508111552 55 87 2.0 0.0 0.00 0.00 0.00 85 1014.9
20260508111508 54 89 0.0 4.0 0.00 0.00 0.00 89 1015.5
20260508111306 56 87 2.0 2.0 0.00 0.00 0.00 85 1014.9
20260508111004 54 49 1.0 2.0 0.00 0.00 0.00 89 1015.6
20260508110847 56 60 2.0 0.0 0.00 0.00 0.00 85 1014.9
20260508110502 54 55 1.0 1.0 0.00 0.00 0.00 88 1015.6
20260508110427 56 60 2.0 0.0 0.00 0.00 0.00 85 1014.9
20260508110350 56 60 2.0 0.0 0.00 0.00 0.00 85 1014.9
20260508110120 56 60 2.0 0.0 0.00 0.00 0.00 85 1014.9
20260508110052 56 60 2.0 0.0 0.00 0.00 0.00 85 1014.9
20260508110022 56 60 2.0 2.0 0.00 0.00 0.00 85 1014.9
20260508110003 54 70 1.0 2.0 0.00 0.00 0.00 88 1015.5
20260508105932 56 37 2.0 0.0 0.00 0.00 0.00 85 1014.9
20260508105830 56 37 2.0 0.0 0.00 0.00 0.00 85 1014.9
20260508105753 56 37 2.0 0.0 0.00 0.00 0.00 85 1014.9
20260508105717 56 37 2.0 0.0 0.00 0.00 0.00 85 1014.9
20260508105641 56 37 2.0 0.0 0.00 0.00 0.00 85 1014.9
20260508105551 56 37 2.0 0.0 0.00 0.00 0.00 85 1014.9
20260508105514 56 37 2.0 0.0 0.00 0.00 0.00 85 1014.9
20260508105458 54 31 1.0 2.0 0.00 0.00 0.00 88 1015.4
20260508105437 56 37 2.0 0.0 0.00 0.00 0.00 85 1014.9
20260508105401 56 37 2.0 0.0 0.00 0.00 0.00 85 1014.9
20260508105337 56 37 2.0 0.0 0.00 0.00 0.00 85 1014.9
20260508105118 56 29 0.0 0.0 0.00 0.00 0.00 85 1014.9
20260508105041 56 29 0.0 0.0 0.00 0.00 0.00 85 1014.9
20260508104958 56 29 0.0 0.0 0.00 0.00 0.00 85 1014.9
20260508104955 54 50 2.0 3.0 0.00 0.00 0.00 88 1015.5
20260508104921 56 29 0.0 0.0 0.00 0.00 0.00 85 1014.9
20260508104838 56 29 0.0 0.0 0.00 0.00 0.00 84 1014.9
20260508104802 56 29 0.0 0.0 0.00 0.00 0.00 84 1014.9
20260508104711 56 29 0.0 0.0 0.00 0.00 0.00 84 1014.9
20260508104635 56 29 0.0 0.0 0.00 0.00 0.00 84 1014.9
20260508104558 56 29 0.0 0.0 0.00 0.00 0.00 84 1014.9
20260508104534 56 29 0.0 0.0 0.00 0.00 0.00 84 1014.9
20260508104504 56 29 0.0 0.0 0.00 0.00 0.00 84 1014.9
20260508104453 54 39 0.0 2.0 0.00 0.00 0.00 88 1015.5
20260508104237 56 41 0.0 0.0 0.00 0.00 0.00 84 1014.9
20260508104201 56 41 0.0 0.0 0.00 0.00 0.00 84 1014.9
20260508104138 56 41 0.0 0.0 0.00 0.00 0.00 84 1014.9
20260508104114 56 41 0.0 0.0 0.00 0.00 0.00 85 1014.9
20260508104050 56 41 0.0 0.0 0.00 0.00 0.00 84 1014.9
20260508104027 56 41 0.0 0.0 0.00 0.00 0.00 85 1014.9
20260508103949 54 64 0.0 2.0 0.00 0.00 0.00 88 1015.6
20260508103806 56 41 0.0 0.0 0.00 0.00 0.00 84 1014.9
20260508103724 56 41 0.0 0.0 0.00 0.00 0.00 85 1014.9
20260508103647 56 41 0.0 0.0 0.00 0.00 0.00 85 1014.9
20260508103624 56 41 0.0 0.0 0.00 0.00 0.00 85 1014.9
20260508103554 56 41 0.0 2.0 0.00 0.00 0.00 84 1014.9
20260508103517 56 82 2.0 0.0 0.00 0.00 0.00 85 1015.3
20260508103447 56 82 2.0 0.0 0.00 0.00 0.00 84 1015.3
20260508103411 56 82 2.0 0.0 0.00 0.00 0.00 84 1015.3
20260508103335 56 82 2.0 0.0 0.00 0.00 0.00 84 1015.3
20260508103258 56 82 2.0 0.0 0.00 0.00 0.00 84 1015.3
20260508103235 56 82 2.0 0.0 0.00 0.00 0.00 84 1015.3
20260508103204 57 82 2.0 0.0 0.00 0.00 0.00 84 1015.3
20260508103127 57 82 2.0 0.0 0.00 0.00 0.00 84 1015.3
20260508103044 57 82 2.0 0.0 0.00 0.00 0.00 84 1015.3
20260508103008 57 82 2.0 0.0 0.00 0.00 0.00 84 1015.3
20260508102943 54 88 2.0 2.0 0.00 0.00 0.00 88 1015.5
20260508102931 57 82 2.0 0.0 0.00 0.00 0.00 84 1015.3
20260508102730 57 82 2.0 2.0 0.00 0.00 0.00 84 1015.3
20260508102627 57 70 1.0 0.0 0.00 0.00 0.00 84 1015.2
20260508102551 57 70 1.0 0.0 0.00 0.00 0.00 84 1015.2
20260508102442 55 89 0.0 3.0 0.00 0.00 0.00 88 1015.5
20260508102201 57 70 1.0 0.0 0.00 0.00 0.00 84 1015.2
20260508102118 57 70 1.0 0.0 0.00 0.00 0.00 84 1015.2
20260508102042 57 70 1.0 0.0 0.00 0.00 0.00 84 1015.2
20260508101939 55 65 2.0 3.0 0.00 0.00 0.00 88 1015.4
20260508101848 57 70 1.0 0.0 0.00 0.00 0.00 84 1015.2
20260508101811 57 70 1.0 0.0 0.00 0.00 0.00 84 1015.2
20260508101741 57 70 1.0 0.0 0.00 0.00 0.00 83 1015.2
20260508101711 57 70 1.0 2.0 0.00 0.00 0.00 84 1015.2
20260508101621 57 75 0.0 0.0 0.00 0.00 0.00 83 1015.3
20260508101545 57 75 0.0 0.0 0.00 0.00 0.00 83 1015.3
20260508101436 55 85 0.0 2.0 0.00 0.00 0.00 88 1015.8
20260508101332 57 75 0.0 0.0 0.00 0.00 0.00 83 1015.3
20260508101248 57 75 0.0 0.0 0.00 0.00 0.00 84 1015.3
20260508101159 57 75 0.0 0.0 0.00 0.00 0.00 84 1015.3
20260508101122 57 75 0.0 0.0 0.00 0.00 0.00 84 1015.3
20260508101039 57 75 0.0 0.0 0.00 0.00 0.00 83 1015.3
20260508100943 57 75 0.0 0.0 0.00 0.00 0.00 83 1015.3
20260508100933 55 59 0.0 2.0 0.00 0.00 0.00 88 1015.7
20260508100912 58 75 0.0 0.0 0.00 0.00 0.00 83 1015.3
20260508100842 58 75 0.0 1.0 0.00 0.00 0.00 83 1015.3
20260508100610 58 55 2.0 0.0 0.00 0.00 0.00 83 1015.5
20260508100533 58 55 2.0 0.0 0.00 0.00 0.00 83 1015.5
20260508100443 58 55 2.0 0.0 0.00 0.00 0.00 83 1015.5
20260508100432 55 82 1.0 2.0 0.00 0.00 0.00 87 1015.6
20260508100217 58 55 2.0 0.0 0.00 0.00 0.00 83 1015.5
20260508100140 58 55 2.0 0.0 0.00 0.00 0.00 83 1015.5
20260508100043 58 55 2.0 0.0 0.00 0.00 0.00 82 1015.5
20260508100007 58 55 2.0 0.0 0.00 0.00 0.00 82 1015.5
20260508095943 58 55 2.0 0.0 0.00 0.00 0.00 82 1015.5
20260508095928 55 63 2.0 3.0 0.00 0.00 0.00 87 1015.7
20260508095913 58 55 2.0 2.0 0.00 0.00 0.00 82 1015.5
20260508095815 58 41 2.0 0.0 0.00 0.00 0.00 82 1015.4
20260508095738 58 41 2.0 0.0 0.00 0.00 0.00 82 1015.4
20260508095649 58 41 2.0 0.0 0.00 0.00 0.00 82 1015.4
20260508095613 58 41 2.0 0.0 0.00 0.00 0.00 82 1015.4
20260508095549 58 41 2.0 0.0 0.00 0.00 0.00 82 1015.4
20260508095526 58 41 2.0 0.0 0.00 0.00 0.00 81 1015.4
20260508095443 58 41 2.0 0.0 0.00 0.00 0.00 82 1015.4
20260508095426 55 57 1.0 2.0 0.00 0.00 0.00 87 1015.6
20260508095413 59 41 2.0 0.0 0.00 0.00 0.00 81 1015.4
20260508095342 59 41 2.0 0.0 0.00 0.00 0.00 82 1015.4
20260508095006 59 41 2.0 0.0 0.00 0.00 0.00 82 1015.4
20260508094936 59 41 2.0 2.0 0.00 0.00 0.00 82 1015.4
20260508094922 55 77 2.0 2.0 0.00 0.00 0.00 87 1015.5
20260508094846 59 68 1.0 0.0 0.00 0.00 0.00 82 1015.6
20260508094632 59 68 1.0 0.0 0.00 0.00 0.00 82 1015.6
20260508094419 59 68 1.0 0.0 0.00 0.00 0.00 82 1015.6
20260508094316 59 68 1.0 0.0 0.00 0.00 0.00 82 1015.6
20260508094233 59 68 1.0 0.0 0.00 0.00 0.00 82 1015.6
20260508094157 59 68 1.0 0.0 0.00 0.00 0.00 82 1015.6
20260508093956 59 68 1.0 0.0 0.00 0.00 0.00 82 1015.6
20260508093926 59 68 1.0 2.0 0.00 0.00 0.00 82 1015.6
20260508093916 55 57 1.0 2.0 0.00 0.00 0.00 86 1015.6
20260508093700 59 58 1.0 0.0 0.00 0.00 0.00 82 1015.4
20260508093624 59 58 1.0 0.0 0.00 0.00 0.00 82 1015.4
20260508093547 59 58 1.0 0.0 0.00 0.00 0.00 82 1015.4
20260508093458 59 58 1.0 0.0 0.00 0.00 0.00 82 1015.4
20260508093421 59 58 1.0 0.0 0.00 0.00 0.00 82 1015.4
20260508093414 55 73 1.0 2.0 0.00 0.00 0.00 86 1015.7
20260508093202 59 58 1.0 0.0 0.00 0.00 0.00 81 1015.4
20260508093112 59 58 1.0 0.0 0.00 0.00 0.00 81 1015.4
20260508093049 59 58 1.0 0.0 0.00 0.00 0.00 81 1015.4
20260508093015 59 58 1.0 1.0 0.00 0.00 0.00 81 1015.4
20260508092911 56 54 1.0 2.0 0.00 0.00 0.00 85 1015.5
20260508092455 59 95 0.0 0.0 0.00 0.00 0.00 82 1015.3
20260508092408 56 57 1.0 2.0 0.00 0.00 0.00 85 1015.6
20260508092059 59 95 0.0 0.0 0.00 0.00 0.00 82 1015.3
20260508092010 59 95 0.0 0.0 0.00 0.00 0.00 82 1015.3
20260508091933 59 95 0.0 0.0 0.00 0.00 0.00 82 1015.3
20260508091907 56 63 2.0 3.0 0.00 0.00 0.00 85 1015.7
20260508091856 59 95 0.0 0.0 0.00 0.00 0.00 82 1015.3
20260508091826 59 95 0.0 0.0 0.00 0.00 0.00 82 1015.3
20260508091756 59 95 0.0 0.0 0.00 0.00 0.00 82 1015.3
20260508091720 59 49 0.0 0.0 0.00 0.00 0.00 82 1015.3
20260508091649 59 49 0.0 0.0 0.00 0.00 0.00 81 1015.3
20260508091430 59 49 0.0 0.0 0.00 0.00 0.00 81 1015.3
20260508091403 56 4 2.0 3.0 0.00 0.00 0.00 85 1015.6
20260508091217 59 49 0.0 0.0 0.00 0.00 0.00 81 1015.3
20260508091141 59 49 0.0 0.0 0.00 0.00 0.00 81 1015.3
20260508091058 59 49 0.0 0.0 0.00 0.00 0.00 81 1015.3
20260508091021 59 49 0.0 0.0 0.00 0.00 0.00 81 1015.3
20260508090944 59 49 0.0 0.0 0.00 0.00 0.00 81 1015.3
20260508090920 59 49 0.0 0.0 0.00 0.00 0.00 81 1015.3
20260508090900 56 25 2.0 3.0 0.00 0.00 0.00 85 1015.7
20260508090850 59 49 0.0 0.0 0.00 0.00 0.00 81 1015.3
20260508090801 59 104 2.0 0.0 0.00 0.00 0.00 81 1015.2
20260508090724 59 104 2.0 0.0 0.00 0.00 0.00 81 1015.2
20260508090359 57 18 2.0 3.0 0.00 0.00 0.00 84 1015.6
20260508090335 59 104 2.0 0.0 0.00 0.00 0.00 81 1015.2
20260508090258 59 104 2.0 0.0 0.00 0.00 0.00 81 1015.2
20260508090221 59 104 2.0 0.0 0.00 0.00 0.00 81 1015.2
20260508090145 59 104 2.0 0.0 0.00 0.00 0.00 81 1015.2
20260508085945 59 104 2.0 0.0 0.00 0.00 0.00 81 1015.2
20260508085914 59 104 2.0 2.0 0.00 0.00 0.00 81 1015.2
20260508085854 57 19 2.0 5.0 0.00 0.00 0.00 84 1015.7
20260508085837 59 52 1.0 0.0 0.00 0.00 0.00 81 1015.3
20260508085814 59 52 1.0 0.0 0.00 0.00 0.00 82 1015.3
20260508085548 59 52 1.0 0.0 0.00 0.00 0.00 82 1015.3
20260508085511 59 52 1.0 0.0 0.00 0.00 0.00 82 1015.3
20260508085428 59 52 1.0 0.0 0.00 0.00 0.00 81 1015.3
20260508085351 59 52 1.0 0.0 0.00 0.00 0.00 81 1015.3
20260508085315 59 52 1.0 0.0 0.00 0.00 0.00 81 1015.3
20260508085225 59 52 1.0 0.0 0.00 0.00 0.00 81 1015.3
20260508085010 59 52 1.0 0.0 0.00 0.00 0.00 81 1015.3
20260508084848 57 89 0.0 2.0 0.00 0.00 0.00 84 1015.8
20260508084727 59 17 1.0 0.0 0.00 0.00 0.00 81 1015.1
20260508084642 59 17 1.0 0.0 0.00 0.00 0.00 81 1015.1
20260508084619 59 17 1.0 0.0 0.00 0.00 0.00 81 1015.1
20260508084541 59 17 1.0 0.0 0.00 0.00 0.00 80 1015.1
20260508084457 59 17 1.0 0.0 0.00 0.00 0.00 80 1015.1
20260508084404 59 17 1.0 0.0 0.00 0.00 0.00 80 1015.1
20260508084345 57 43 1.0 3.0 0.00 0.00 0.00 84 1016.0
20260508084328 59 17 1.0 0.0 0.00 0.00 0.00 80 1015.1
20260508084251 59 17 1.0 0.0 0.00 0.00 0.00 80 1015.1
20260508084034 60 17 1.0 0.0 0.00 0.00 0.00 80 1015.1
20260508084003 60 17 1.0 0.0 0.00 0.00 0.00 80 1015.1
20260508083925 60 17 1.0 0.0 0.00 0.00 0.00 79 1015.1
20260508083902 60 17 1.0 0.0 0.00 0.00 0.00 79 1015.1
20260508083843 57 83 0.0 3.0 0.00 0.00 0.00 84 1016.0
20260508083613 60 44 0.0 0.0 0.00 0.00 0.00 79 1015.1
20260508083515 60 44 0.0 0.0 0.00 0.00 0.00 79 1015.1
20260508083437 60 44 0.0 0.0 0.00 0.00 0.00 79 1015.1
20260508083347 60 44 0.0 0.0 0.00 0.00 0.00 79 1015.1
20260508083340 57 45 2.0 3.0 0.00 0.00 0.00 84 1015.9
20260508083308 60 44 0.0 0.0 0.00 0.00 0.00 79 1015.1
20260508083230 60 44 0.0 0.0 0.00 0.00 0.00 78 1015.1
20260508083147 61 44 0.0 0.0 0.00 0.00 0.00 79 1015.1
20260508083056 61 44 0.0 0.0 0.00 0.00 0.00 79 1015.1
20260508083012 61 44 0.0 0.0 0.00 0.00 0.00 79 1015.1
20260508082949 61 44 0.0 0.0 0.00 0.00 0.00 79 1015.1
20260508082918 61 44 0.0 0.0 0.00 0.00 0.00 78 1015.1
20260508082839 57 69 0.0 2.0 0.00 0.00 0.00 83 1016.3
20260508082703 61 44 0.0 1.0 0.00 0.00 0.00 78 1015.1
20260508082613 61 70 0.0 0.0 0.00 0.00 0.00 78 1015.0
20260508082550 61 70 0.0 0.0 0.00 0.00 0.00 78 1015.0
20260508082519 61 70 0.0 0.0 0.00 0.00 0.00 79 1015.0
20260508082436 61 70 0.0 0.0 0.00 0.00 0.00 78 1015.0
20260508082359 61 70 0.0 0.0 0.00 0.00 0.00 78 1015.0
20260508082337 57 53 0.0 2.0 0.00 0.00 0.00 83 1016.0
20260508082126 61 70 0.0 0.0 0.00 0.00 0.00 78 1015.0
20260508082049 61 70 0.0 0.0 0.00 0.00 0.00 78 1015.0
20260508081834 58 49 0.0 1.0 0.00 0.00 0.00 83 1016.0
20260508081659 61 70 0.0 0.0 0.00 0.00 0.00 78 1015.0
20260508081629 61 70 0.0 1.0 0.00 0.00 0.00 78 1015.0
20260508081539 61 79 2.0 0.0 0.00 0.00 0.00 78 1015.0
20260508081455 62 79 2.0 0.0 0.00 0.00 0.00 78 1015.0
20260508081418 62 79 2.0 0.0 0.00 0.00 0.00 78 1015.0
20260508081341 62 79 2.0 0.0 0.00 0.00 0.00 78 1015.0
20260508081331 58 63 0.0 1.0 0.00 0.00 0.00 82 1016.4
20260508081305 62 79 2.0 0.0 0.00 0.00 0.00 78 1015.0
20260508081229 62 79 2.0 0.0 0.00 0.00 0.00 78 1015.0
20260508081015 62 79 2.0 0.0 0.00 0.00 0.00 78 1015.0
20260508080828 58 47 2.0 2.0 0.00 0.00 0.00 82 1016.3
20260508080809 62 79 2.0 0.0 0.00 0.00 0.00 78 1015.0
20260508080739 62 79 2.0 3.0 0.00 0.00 0.00 78 1015.0
20260508080647 62 120 4.0 0.0 0.00 0.00 0.00 78 1015.1
20260508080611 62 120 4.0 0.0 0.00 0.00 0.00 78 1015.1
20260508080521 62 120 4.0 0.0 0.00 0.00 0.00 78 1015.1
20260508080326 59 50 2.0 2.0 0.00 0.00 0.00 82 1016.3
20260508080308 62 120 4.0 0.0 0.00 0.00 0.00 78 1015.1
20260508080231 62 120 4.0 0.0 0.00 0.00 0.00 78 1015.1
20260508080207 62 120 4.0 0.0 0.00 0.00 0.00 78 1015.1
20260508080124 62 120 4.0 0.0 0.00 0.00 0.00 77 1015.1
20260508075911 62 120 4.0 0.0 0.00 0.00 0.00 77 1015.1
20260508075847 62 120 4.0 0.0 0.00 0.00 0.00 77 1015.1
20260508075822 59 44 0.0 2.0 0.00 0.00 0.00 82 1016.4
20260508075817 62 120 4.0 5.0 0.00 0.00 0.00 77 1015.1
20260508075728 62 76 2.0 0.0 0.00 0.00 0.00 77 1014.9
20260508075644 62 76 2.0 0.0 0.00 0.00 0.00 77 1014.9
20260508075607 62 76 2.0 0.0 0.00 0.00 0.00 77 1014.9
20260508075524 62 76 2.0 0.0 0.00 0.00 0.00 77 1014.9
20260508075447 62 76 2.0 0.0 0.00 0.00 0.00 77 1014.9
20260508075411 62 76 2.0 0.0 0.00 0.00 0.00 77 1014.9
20260508075335 62 76 2.0 0.0 0.00 0.00 0.00 77 1014.9
20260508075319 59 72 0.0 3.0 0.00 0.00 0.00 82 1016.5
20260508075245 62 76 2.0 0.0 0.00 0.00 0.00 77 1014.9
20260508075221 62 76 2.0 0.0 0.00 0.00 0.00 77 1014.9
20260508075151 62 76 2.0 0.0 0.00 0.00 0.00 76 1014.9
20260508074957 62 76 2.0 2.0 0.00 0.00 0.00 76 1014.9
20260508074817 59 70 0.0 2.0 0.00 0.00 0.00 82 1016.5
20260508074611 62 86 2.0 0.0 0.00 0.00 0.00 77 1014.8
20260508074547 62 86 2.0 0.0 0.00 0.00 0.00 77 1014.8
20260508074314 59 69 0.0 0.0 0.00 0.00 0.00 82 1016.4
20260508074157 62 86 2.0 0.0 0.00 0.00 0.00 76 1014.8
20260508074121 62 86 2.0 0.0 0.00 0.00 0.00 76 1014.8
20260508074037 62 86 2.0 0.0 0.00 0.00 0.00 76 1014.8
20260508074001 62 86 2.0 0.0 0.00 0.00 0.00 76 1014.8
20260508073924 62 86 2.0 0.0 0.00 0.00 0.00 76 1014.8
20260508073900 62 86 2.0 0.0 0.00 0.00 0.00 76 1014.8
20260508073830 62 86 2.0 2.0 0.00 0.00 0.00 76 1014.8
20260508073811 59 87 2.0 3.0 0.00 0.00 0.00 81 1016.4
20260508073741 62 113 3.0 0.0 0.00 0.00 0.00 75 1014.9
20260508073657 63 113 3.0 0.0 0.00 0.00 0.00 75 1014.9
20260508073614 63 113 3.0 0.0 0.00 0.00 0.00 75 1014.9
20260508073309 59 80 0.0 2.0 0.00 0.00 0.00 82 1016.4
20260508073211 63 113 3.0 0.0 0.00 0.00 0.00 75 1014.9
20260508073135 63 113 3.0 0.0 0.00 0.00 0.00 75 1014.9
20260508073045 63 113 3.0 0.0 0.00 0.00 0.00 75 1014.9
20260508073008 63 113 3.0 0.0 0.00 0.00 0.00 75 1014.9
20260508072944 63 113 3.0 0.0 0.00 0.00 0.00 75 1014.9
20260508072914 63 113 3.0 3.0 0.00 0.00 0.00 74 1014.9
20260508072825 63 39 1.0 0.0 0.00 0.00 0.00 74 1014.9
20260508072805 59 37 0.0 0.0 0.00 0.00 0.00 81 1016.2
20260508072605 63 39 1.0 0.0 0.00 0.00 0.00 74 1014.9
20260508072541 63 39 1.0 0.0 0.00 0.00 0.00 74 1014.9
20260508072518 63 39 1.0 0.0 0.00 0.00 0.00 75 1014.9
20260508072435 63 39 1.0 0.0 0.00 0.00 0.00 74 1014.9
20260508072345 63 39 1.0 0.0 0.00 0.00 0.00 74 1014.9
20260508072309 63 39 1.0 0.0 0.00 0.00 0.00 74 1014.9
20260508072306 59 48 0.0 1.0 0.00 0.00 0.00 81 1016.3
20260508072232 63 39 1.0 0.0 0.00 0.00 0.00 74 1014.9
20260508072155 63 39 1.0 0.0 0.00 0.00 0.00 74 1014.9
20260508072132 63 39 1.0 0.0 0.00 0.00 0.00 74 1014.9
20260508072049 63 39 1.0 2.0 0.00 0.00 0.00 74 1014.9
20260508071759 59 50 0.0 1.0 0.00 0.00 0.00 81 1016.0
20260508071644 64 88 1.0 0.0 0.00 0.00 0.00 74 1015.0
20260508071601 64 88 1.0 0.0 0.00 0.00 0.00 73 1015.0
20260508071524 64 88 1.0 0.0 0.00 0.00 0.00 73 1015.0
20260508071434 64 88 1.0 0.0 0.00 0.00 0.00 74 1015.0
20260508071411 64 88 1.0 0.0 0.00 0.00 0.00 74 1015.0
20260508071257 59 25 0.0 1.0 0.00 0.00 0.00 81 1016.0
20260508071204 64 88 1.0 0.0 0.00 0.00 0.00 73 1015.0
20260508071114 64 88 1.0 0.0 0.00 0.00 0.00 73 1015.0
20260508070920 64 88 1.0 2.0 0.00 0.00 0.00 73 1015.0
20260508070830 64 95 2.0 0.0 0.00 0.00 0.00 73 1015.0
20260508070754 64 95 2.0 0.0 0.00 0.00 0.00 73 1015.0
20260508070718 64 95 2.0 0.0 0.00 0.00 0.00 73 1015.0
20260508070634 64 95 2.0 0.0 0.00 0.00 0.00 73 1015.0
20260508070558 64 95 2.0 0.0 0.00 0.00 0.00 73 1015.0
20260508070253 59 101 1.0 2.0 0.00 0.00 0.00 81 1016.2
20260508070150 64 95 2.0 0.0 0.00 0.00 0.00 72 1015.0
20260508070113 64 95 2.0 0.0 0.00 0.00 0.00 72 1015.0
20260508070037 64 95 2.0 0.0 0.00 0.00 0.00 72 1015.0
20260508070003 64 95 2.0 2.0 0.00 0.00 0.00 72 1015.0
20260508065913 64 114 3.0 0.0 0.00 0.00 0.00 72 1014.9
20260508065830 65 114 3.0 0.0 0.00 0.00 0.00 72 1014.9
20260508065754 65 114 3.0 0.0 0.00 0.00 0.00 72 1014.9
20260508065750 59 37 0.0 2.0 0.00 0.00 0.00 80 1016.2
20260508065710 65 114 3.0 0.0 0.00 0.00 0.00 72 1014.9
20260508065634 65 114 3.0 0.0 0.00 0.00 0.00 72 1014.9
20260508065603 65 114 3.0 0.0 0.00 0.00 0.00 72 1014.9
20260508065533 65 114 3.0 0.0 0.00 0.00 0.00 71 1014.9
20260508065443 65 114 3.0 0.0 0.00 0.00 0.00 71 1014.9
20260508065407 65 114 3.0 0.0 0.00 0.00 0.00 71 1014.9
20260508065331 65 114 3.0 0.0 0.00 0.00 0.00 71 1014.9
20260508065300 65 114 3.0 0.0 0.00 0.00 0.00 71 1014.9
20260508065248 60 324 1.0 2.0 0.00 0.00 0.00 80 1015.9
20260508065230 65 114 3.0 4.0 0.00 0.00 0.00 71 1014.9
20260508065141 65 112 1.0 0.0 0.00 0.00 0.00 71 1014.8
20260508065051 65 112 1.0 0.0 0.00 0.00 0.00 71 1014.8
20260508065015 65 112 1.0 0.0 0.00 0.00 0.00 71 1014.8
20260508064938 65 112 1.0 0.0 0.00 0.00 0.00 71 1014.8
20260508064902 65 112 1.0 0.0 0.00 0.00 0.00 71 1014.8
20260508064838 65 112 1.0 0.0 0.00 0.00 0.00 71 1014.8
20260508064806 65 112 1.0 0.0 0.00 0.00 0.00 70 1014.8
20260508064745 60 0 0.0 4.0 0.00 0.00 0.00 79 1016.3
20260508064729 65 112 1.0 0.0 0.00 0.00 0.00 70 1014.8
20260508064645 65 112 1.0 0.0 0.00 0.00 0.00 70 1014.8
20260508064608 65 112 1.0 0.0 0.00 0.00 0.00 70 1014.8
20260508064414 65 112 1.0 2.0 0.00 0.00 0.00 70 1014.8
20260508064317 65 105 0.0 0.0 0.00 0.00 0.00 70 1014.3
20260508064243 61 40 0.0 2.0 0.00 0.00 0.00 79 1016.0
20260508064241 65 105 0.0 0.0 0.00 0.00 0.00 70 1014.3
20260508064204 65 105 0.0 0.0 0.00 0.00 0.00 70 1014.3
20260508063951 65 105 0.0 0.0 0.00 0.00 0.00 70 1014.3
20260508063915 65 105 0.0 0.0 0.00 0.00 0.00 70 1014.3
20260508063832 65 105 0.0 0.0 0.00 0.00 0.00 70 1014.3
20260508063748 65 105 0.0 0.0 0.00 0.00 0.00 71 1014.3
20260508063740 61 43 2.0 3.0 0.00 0.00 0.00 78 1015.9
20260508063659 65 105 0.0 0.0 0.00 0.00 0.00 71 1014.3
20260508063635 65 105 0.0 0.0 0.00 0.00 0.00 71 1014.3
20260508063605 65 105 0.0 2.0 0.00 0.00 0.00 70 1014.3
20260508063528 65 91 2.0 0.0 0.00 0.00 0.00 71 1014.4
20260508063458 65 91 2.0 0.0 0.00 0.00 0.00 70 1014.4
20260508063415 65 91 2.0 0.0 0.00 0.00 0.00 70 1014.4
20260508063339 65 91 2.0 0.0 0.00 0.00 0.00 70 1014.4
20260508063249 65 91 2.0 0.0 0.00 0.00 0.00 70 1014.4
20260508063238 61 85 1.0 2.0 0.00 0.00 0.00 78 1016.0
20260508063152 65 91 2.0 0.0 0.00 0.00 0.00 69 1014.4
20260508063129 65 91 2.0 0.0 0.00 0.00 0.00 69 1014.4
20260508063058 66 91 2.0 0.0 0.00 0.00 0.00 69 1014.4
20260508063015 66 91 2.0 0.0 0.00 0.00 0.00 69 1014.4
20260508062938 66 91 2.0 0.0 0.00 0.00 0.00 69 1014.4
20260508062855 66 91 2.0 0.0 0.00 0.00 0.00 69 1014.4
20260508062832 66 91 2.0 0.0 0.00 0.00 0.00 69 1014.4
20260508062802 66 91 2.0 2.0 0.00 0.00 0.00 68 1014.4
20260508062735 62 98 0.0 4.0 0.00 0.00 0.00 78 1015.9
20260508062712 66 50 0.0 0.0 0.00 0.00 0.00 68 1014.0
20260508062630 66 50 0.0 0.0 0.00 0.00 0.00 68 1014.0
20260508062554 66 50 0.0 0.0 0.00 0.00 0.00 68 1014.0
20260508062523 66 50 0.0 0.0 0.00 0.00 0.00 68 1014.0
20260508062459 66 50 0.0 0.0 0.00 0.00 0.00 69 1014.0
20260508062423 66 50 0.0 0.0 0.00 0.00 0.00 69 1014.0
20260508062353 66 50 0.0 0.0 0.00 0.00 0.00 68 1014.0
20260508062322 67 50 0.0 0.0 0.00 0.00 0.00 68 1014.0
20260508062245 67 50 0.0 0.0 0.00 0.00 0.00 68 1014.0
20260508062233 62 104 1.0 3.0 0.00 0.00 0.00 78 1015.9
20260508062209 67 50 0.0 0.0 0.00 0.00 0.00 68 1014.0
20260508062119 67 50 0.0 0.0 0.00 0.00 0.00 68 1014.0
20260508061925 67 50 0.0 0.0 0.00 0.00 0.00 68 1014.0
20260508061848 67 73 1.0 0.0 0.00 0.00 0.00 68 1013.7
20260508061730 62 125 3.0 3.0 0.00 0.00 0.00 78 1016.0
20260508061458 67 73 1.0 0.0 0.00 0.00 0.00 67 1013.7
20260508061415 67 73 1.0 0.0 0.00 0.00 0.00 67 1013.7
20260508061325 67 73 1.0 0.0 0.00 0.00 0.00 67 1013.7
20260508061301 67 73 1.0 0.0 0.00 0.00 0.00 67 1013.7
20260508061227 62 111 2.0 5.0 0.00 0.00 0.00 77 1015.8
20260508061114 67 73 1.0 0.0 0.00 0.00 0.00 66 1013.7
20260508061037 67 73 1.0 0.0 0.00 0.00 0.00 67 1013.7
20260508061005 67 73 1.0 0.0 0.00 0.00 0.00 66 1013.7
20260508060758 67 73 1.0 0.0 0.00 0.00 0.00 67 1013.7
20260508060728 67 73 1.0 0.0 0.00 0.00 0.00 66 1013.7
20260508060723 62 83 2.0 3.0 0.00 0.00 0.00 77 1015.8
20260508060658 67 73 1.0 2.0 0.00 0.00 0.00 66 1013.7
20260508060622 67 140 0.0 0.0 0.00 0.00 0.00 66 1014.0
20260508060551 68 140 0.0 0.0 0.00 0.00 0.00 66 1014.0
20260508060502 68 140 0.0 0.0 0.00 0.00 0.00 66 1014.0
20260508060412 68 140 0.0 0.0 0.00 0.00 0.00 66 1014.0
20260508060336 68 140 0.0 0.0 0.00 0.00 0.00 66 1014.0
20260508060300 68 140 0.0 0.0 0.00 0.00 0.00 66 1014.0
20260508060221 62 105 2.0 3.0 0.00 0.00 0.00 77 1016.0
20260508060205 68 140 0.0 0.0 0.00 0.00 0.00 66 1014.0
20260508060129 68 140 0.0 0.0 0.00 0.00 0.00 66 1014.0
20260508060052 68 140 0.0 0.0 0.00 0.00 0.00 66 1014.0
20260508060015 68 140 0.0 0.0 0.00 0.00 0.00 66 1014.0
20260508055951 68 140 0.0 0.0 0.00 0.00 0.00 66 1014.0
20260508055920 68 140 0.0 0.0 0.00 0.00 0.00 66 1014.0
20260508055818 68 44 0.0 0.0 0.00 0.00 0.00 66 1013.8
20260508055735 68 44 0.0 0.0 0.00 0.00 0.00 66 1013.8
20260508055716 62 108 2.0 3.0 0.00 0.00 0.00 76 1015.8
20260508055659 68 44 0.0 0.0 0.00 0.00 0.00 66 1013.8
20260508055622 68 44 0.0 0.0 0.00 0.00 0.00 66 1013.8
20260508055537 68 44 0.0 0.0 0.00 0.00 0.00 66 1013.8
20260508055458 68 44 0.0 0.0 0.00 0.00 0.00 66 1013.8
20260508055408 68 44 0.0 0.0 0.00 0.00 0.00 66 1013.8
20260508055325 68 44 0.0 0.0 0.00 0.00 0.00 65 1013.8
20260508055242 68 44 0.0 0.0 0.00 0.00 0.00 65 1013.8
20260508055218 68 44 0.0 0.0 0.00 0.00 0.00 65 1013.8
20260508055213 62 89 0.0 3.0 0.00 0.00 0.00 76 1015.7
20260508055148 68 44 0.0 1.0 0.00 0.00 0.00 65 1013.8
20260508055045 68 27 1.0 0.0 0.00 0.00 0.00 65 1013.6
20260508055008 68 27 1.0 0.0 0.00 0.00 0.00 65 1013.6
20260508054907 68 27 1.0 0.0 0.00 0.00 0.00 64 1013.6
20260508054831 68 27 1.0 0.0 0.00 0.00 0.00 64 1013.6
20260508054748 68 27 1.0 0.0 0.00 0.00 0.00 64 1013.6
20260508054711 68 27 1.0 0.0 0.00 0.00 0.00 64 1013.6
20260508054628 68 27 1.0 0.0 0.00 0.00 0.00 63 1013.6
20260508054545 69 27 1.0 0.0 0.00 0.00 0.00 63 1013.6
20260508054344 69 27 1.0 0.0 0.00 0.00 0.00 63 1013.6
20260508054314 69 27 1.0 1.0 0.00 0.00 0.00 63 1013.6
20260508054208 63 106 1.0 3.0 0.00 0.00 0.00 75 1015.8
20260508054033 69 304 0.0 0.0 0.00 0.00 0.00 63 1013.6
20260508053955 69 304 0.0 0.0 0.00 0.00 0.00 63 1013.6
20260508053913 69 304 0.0 0.0 0.00 0.00 0.00 63 1013.6
20260508053836 69 304 0.0 0.0 0.00 0.00 0.00 63 1013.6
20260508053812 69 304 0.0 0.0 0.00 0.00 0.00 63 1013.6
20260508053742 69 304 0.0 0.0 0.00 0.00 0.00 62 1013.6
20260508053704 63 198 0.0 4.0 0.00 0.00 0.00 74 1015.8
20260508053652 69 304 0.0 0.0 0.00 0.00 0.00 62 1013.6
20260508053436 69 304 0.0 0.0 0.00 0.00 0.00 62 1013.6
20260508053412 69 304 0.0 0.0 0.00 0.00 0.00 62 1013.6
20260508053340 69 304 0.0 0.0 0.00 0.00 0.00 62 1013.6
20260508053202 63 119 2.0 3.0 0.00 0.00 0.00 74 1015.7
20260508052941 69 135 0.0 0.0 0.00 0.00 0.00 63 1013.5
20260508052746 69 135 0.0 0.0 0.00 0.00 0.00 63 1013.5
20260508052716 69 135 0.0 0.0 0.00 0.00 0.00 62 1013.5
20260508052659 64 97 1.0 3.0 0.00 0.00 0.00 73 1015.9
20260508052502 69 135 0.0 0.0 0.00 0.00 0.00 62 1013.5
20260508052431 69 135 0.0 0.0 0.00 0.00 0.00 61 1013.5
20260508052355 69 135 0.0 0.0 0.00 0.00 0.00 61 1013.5
20260508052331 69 135 0.0 0.0 0.00 0.00 0.00 61 1013.5
20260508052253 69 135 0.0 0.0 0.00 0.00 0.00 62 1013.5
20260508052216 69 135 0.0 0.0 0.00 0.00 0.00 62 1013.5
20260508052156 64 86 2.0 3.0 0.00 0.00 0.00 73 1015.8
20260508052144 69 135 0.0 0.0 0.00 0.00 0.00 62 1013.5
20260508052105 69 135 0.0 0.0 0.00 0.00 0.00 61 1013.5
20260508052015 69 343 2.0 0.0 0.00 0.00 0.00 61 1013.4
20260508051951 69 343 2.0 0.0 0.00 0.00 0.00 61 1013.4
20260508051921 69 343 2.0 0.0 0.00 0.00 0.00 62 1013.4
20260508051701 69 343 2.0 0.0 0.00 0.00 0.00 61 1013.4
20260508051652 64 103 0.0 2.0 0.00 0.00 0.00 73 1015.8
20260508051624 69 343 2.0 0.0 0.00 0.00 0.00 61 1013.4
20260508051548 69 343 2.0 0.0 0.00 0.00 0.00 61 1013.4
20260508051217 70 343 2.0 0.0 0.00 0.00 0.00 61 1013.4
20260508051148 64 97 1.0 3.0 0.00 0.00 0.00 72 1015.6
20260508051140 70 343 2.0 0.0 0.00 0.00 0.00 61 1013.4
20260508051117 70 343 2.0 0.0 0.00 0.00 0.00 61 1013.4
20260508051047 70 343 2.0 2.0 0.00 0.00 0.00 61 1013.4
20260508050952 70 55 0.0 0.0 0.00 0.00 0.00 61 1013.1
20260508050732 70 55 0.0 0.0 0.00 0.00 0.00 60 1013.1
20260508050644 65 104 1.0 3.0 0.00 0.00 0.00 72 1015.8
20260508050554 70 55 0.0 0.0 0.00 0.00 0.00 60 1013.1
20260508050517 70 55 0.0 0.0 0.00 0.00 0.00 60 1013.1
20260508050257 70 55 0.0 0.0 0.00 0.00 0.00 60 1013.1
20260508050220 70 55 0.0 0.0 0.00 0.00 0.00 60 1013.1
20260508050156 70 55 0.0 0.0 0.00 0.00 0.00 60 1013.1
20260508050142 65 128 3.0 4.0 0.00 0.00 0.00 71 1015.7
20260508050126 70 55 0.0 2.0 0.00 0.00 0.00 60 1013.1
20260508050021 70 329 1.0 0.0 0.00 0.00 0.00 60 1013.1
20260508045944 70 329 1.0 0.0 0.00 0.00 0.00 60 1013.1
20260508045920 70 329 1.0 0.0 0.00 0.00 0.00 60 1013.1
20260508045850 71 329 1.0 0.0 0.00 0.00 0.00 59 1013.1
20260508045703 71 329 1.0 0.0 0.00 0.00 0.00 60 1013.1
20260508045637 65 114 0.0 3.0 0.00 0.00 0.00 71 1015.7
20260508045620 71 329 1.0 0.0 0.00 0.00 0.00 59 1013.1
20260508045216 71 329 1.0 0.0 0.00 0.00 0.00 59 1013.1
20260508045136 66 127 1.0 5.0 0.00 0.00 0.00 70 1015.4
20260508045009 71 329 1.0 0.0 0.00 0.00 0.00 59 1013.1
20260508044938 71 329 1.0 2.0 0.00 0.00 0.00 59 1013.1
20260508044708 71 76 0.0 0.0 0.00 0.00 0.00 59 1013.0
20260508044632 66 135 0.0 4.0 0.00 0.00 0.00 70 1015.5
20260508044455 71 76 0.0 0.0 0.00 0.00 0.00 59 1013.0
20260508044404 71 76 0.0 0.0 0.00 0.00 0.00 59 1013.0
20260508044328 71 76 0.0 0.0 0.00 0.00 0.00 59 1013.0
20260508044251 71 76 0.0 0.0 0.00 0.00 0.00 59 1013.0
20260508044208 71 76 0.0 0.0 0.00 0.00 0.00 58 1013.0
20260508044128 65 37 0.0 2.0 0.00 0.00 0.00 71 1015.4
20260508044118 71 76 0.0 0.0 0.00 0.00 0.00 58 1013.0
20260508044055 71 76 0.0 0.0 0.00 0.00 0.00 58 1013.0
20260508044024 71 76 0.0 0.0 0.00 0.00 0.00 57 1013.0
20260508043935 72 146 0.0 0.0 0.00 0.00 0.00 57 1012.8
20260508043859 72 146 0.0 0.0 0.00 0.00 0.00 57 1012.8
20260508043809 72 146 0.0 0.0 0.00 0.00 0.00 57 1012.8
20260508043625 65 99 2.0 3.0 0.00 0.00 0.00 70 1015.3
20260508043543 72 146 0.0 0.0 0.00 0.00 0.00 57 1012.8
20260508043507 72 146 0.0 0.0 0.00 0.00 0.00 57 1012.8
20260508043424 72 146 0.0 0.0 0.00 0.00 0.00 56 1012.8
20260508043341 72 146 0.0 0.0 0.00 0.00 0.00 56 1012.8
20260508043251 72 146 0.0 0.0 0.00 0.00 0.00 56 1012.8
20260508043123 66 75 1.0 2.0 0.00 0.00 0.00 69 1015.2
20260508043057 72 146 0.0 2.0 0.00 0.00 0.00 56 1012.8
20260508043007 72 310 0.0 0.0 0.00 0.00 0.00 56 1012.6
20260508042748 73 310 0.0 0.0 0.00 0.00 0.00 56 1012.6
20260508042645 73 310 0.0 0.0 0.00 0.00 0.00 56 1012.6
20260508042619 66 44 1.0 2.0 0.00 0.00 0.00 69 1015.2
20260508042556 73 310 0.0 0.0 0.00 0.00 0.00 56 1012.6
20260508042532 73 310 0.0 0.0 0.00 0.00 0.00 55 1012.6
20260508042508 73 310 0.0 0.0 0.00 0.00 0.00 56 1012.6
20260508042444 73 310 0.0 0.0 0.00 0.00 0.00 55 1012.6
20260508042414 73 310 0.0 0.0 0.00 0.00 0.00 56 1012.6
20260508042331 73 310 0.0 0.0 0.00 0.00 0.00 55 1012.6
20260508042255 73 310 0.0 0.0 0.00 0.00 0.00 56 1012.6
20260508042225 73 310 0.0 0.0 0.00 0.00 0.00 55 1012.6
20260508042201 73 310 0.0 0.0 0.00 0.00 0.00 55 1012.6
20260508042117 67 50 0.0 0.0 0.00 0.00 0.00 68 1015.3
20260508041941 73 296 0.0 0.0 0.00 0.00 0.00 55 1012.6
20260508041918 73 296 0.0 0.0 0.00 0.00 0.00 55 1012.6
20260508041848 74 296 0.0 0.0 0.00 0.00 0.00 55 1012.6
20260508041811 74 296 0.0 0.0 0.00 0.00 0.00 55 1012.6
20260508041735 74 296 0.0 0.0 0.00 0.00 0.00 55 1012.6
20260508041704 74 296 0.0 0.0 0.00 0.00 0.00 54 1012.6
20260508041613 67 89 1.0 2.0 0.00 0.00 0.00 67 1015.0
20260508041444 74 296 0.0 0.0 0.00 0.00 0.00 54 1012.6
20260508041420 74 296 0.0 0.0 0.00 0.00 0.00 54 1012.6
20260508041207 74 296 0.0 0.0 0.00 0.00 0.00 54 1012.6
20260508041117 74 296 0.0 0.0 0.00 0.00 0.00 54 1012.6
20260508041109 68 78 2.0 3.0 0.00 0.00 0.00 66 1014.8
20260508041054 74 296 0.0 0.0 0.00 0.00 0.00 54 1012.6
20260508041023 74 296 0.0 2.0 0.00 0.00 0.00 54 1012.6
20260508040744 74 283 0.0 0.0 0.00 0.00 0.00 54 1012.5
20260508040708 74 283 0.0 0.0 0.00 0.00 0.00 54 1012.5
20260508040631 74 283 0.0 0.0 0.00 0.00 0.00 54 1012.5
20260508040606 68 81 0.0 3.0 0.00 0.00 0.00 66 1014.8
20260508040548 74 283 0.0 0.0 0.00 0.00 0.00 54 1012.5
20260508040512 74 283 0.0 0.0 0.00 0.00 0.00 54 1012.5
20260508040435 74 283 0.0 0.0 0.00 0.00 0.00 54 1012.5
20260508040352 75 283 0.0 0.0 0.00 0.00 0.00 54 1012.5
20260508040328 75 283 0.0 0.0 0.00 0.00 0.00 54 1012.5
20260508040258 75 283 0.0 0.0 0.00 0.00 0.00 53 1012.5
20260508040228 75 283 0.0 0.0 0.00 0.00 0.00 53 1012.5
20260508040158 75 283 0.0 2.0 0.00 0.00 0.00 53 1012.5
20260508040104 68 125 2.0 5.0 0.00 0.00 0.00 66 1014.9
20260508035932 75 50 2.0 0.0 0.00 0.00 0.00 53 1012.5
20260508035851 75 50 2.0 0.0 0.00 0.00 0.00 53 1012.5
20260508035814 75 50 2.0 0.0 0.00 0.00 0.00 53 1012.5
20260508035738 75 50 2.0 0.0 0.00 0.00 0.00 53 1012.5
20260508035601 68 124 0.0 2.0 0.00 0.00 0.00 66 1014.9
20260508035329 75 50 2.0 0.0 0.00 0.00 0.00 53 1012.5
20260508035252 75 50 2.0 0.0 0.00 0.00 0.00 53 1012.5
20260508035229 75 50 2.0 0.0 0.00 0.00 0.00 53 1012.5
20260508035058 68 44 0.0 2.0 0.00 0.00 0.00 65 1014.7
20260508034956 75 350 2.0 0.0 0.00 0.00 0.00 53 1012.6
20260508034932 75 350 2.0 0.0 0.00 0.00 0.00 53 1012.6
20260508034902 75 350 2.0 0.0 0.00 0.00 0.00 52 1012.6
20260508034819 76 350 2.0 0.0 0.00 0.00 0.00 52 1012.6
20260508034736 76 350 2.0 0.0 0.00 0.00 0.00 52 1012.6
20260508034659 76 350 2.0 0.0 0.00 0.00 0.00 52 1012.6
20260508034636 76 350 2.0 0.0 0.00 0.00 0.00 52 1012.6
20260508034605 76 350 2.0 0.0 0.00 0.00 0.00 53 1012.6
20260508034555 68 50 0.0 1.0 0.00 0.00 0.00 64 1014.8
20260508034521 76 350 2.0 0.0 0.00 0.00 0.00 52 1012.6
20260508034438 76 350 2.0 0.0 0.00 0.00 0.00 52 1012.6
20260508034402 76 350 2.0 0.0 0.00 0.00 0.00 52 1012.6
20260508034338 76 350 2.0 0.0 0.00 0.00 0.00 52 1012.6
20260508034307 76 350 2.0 2.0 0.00 0.00 0.00 52 1012.6
20260508034230 76 291 2.0 0.0 0.00 0.00 0.00 51 1012.3
20260508034200 76 291 2.0 0.0 0.00 0.00 0.00 52 1012.3
20260508034117 76 291 2.0 0.0 0.00 0.00 0.00 51 1012.3
20260508034052 69 33 1.0 2.0 0.00 0.00 0.00 63 1014.5
20260508034034 77 291 2.0 0.0 0.00 0.00 0.00 51 1012.3
20260508033957 77 291 2.0 0.0 0.00 0.00 0.00 51 1012.3
20260508033905 77 291 2.0 0.0 0.00 0.00 0.00 51 1012.3
20260508033829 77 291 2.0 0.0 0.00 0.00 0.00 51 1012.3
20260508033746 77 291 2.0 0.0 0.00 0.00 0.00 51 1012.3
20260508033709 77 291 2.0 0.0 0.00 0.00 0.00 50 1012.3
20260508033645 77 291 2.0 0.0 0.00 0.00 0.00 50 1012.3
20260508033615 77 291 2.0 0.0 0.00 0.00 0.00 51 1012.3
20260508033558 77 291 2.0 0.0 0.00 0.00 0.00 51 1012.3
20260508033549 69 82 2.0 2.0 0.00 0.00 0.00 63 1014.6
20260508033527 77 291 2.0 2.0 0.00 0.00 0.00 50 1012.3
20260508033425 77 330 0.0 0.0 0.00 0.00 0.00 50 1012.5
20260508033335 77 330 0.0 0.0 0.00 0.00 0.00 50 1012.5
20260508033259 77 330 0.0 0.0 0.00 0.00 0.00 50 1012.5
20260508033222 77 330 0.0 0.0 0.00 0.00 0.00 50 1012.5
20260508033132 78 330 0.0 0.0 0.00 0.00 0.00 50 1012.5
20260508033108 78 330 0.0 0.0 0.00 0.00 0.00 49 1012.5
20260508033048 69 304 0.0 0.0 0.00 0.00 0.00 62 1014.4
20260508033031 78 330 0.0 0.0 0.00 0.00 0.00 50 1012.5
20260508033001 78 330 0.0 0.0 0.00 0.00 0.00 49 1012.5
20260508032931 78 330 0.0 0.0 0.00 0.00 0.00 50 1012.5
20260508032848 78 330 0.0 0.0 0.00 0.00 0.00 49 1012.5
20260508032804 78 330 0.0 0.0 0.00 0.00 0.00 49 1012.5
20260508032734 78 330 0.0 0.0 0.00 0.00 0.00 48 1012.5
20260508032702 78 330 0.0 2.0 0.00 0.00 0.00 49 1012.5
20260508032626 78 3 0.0 0.0 0.00 0.00 0.00 49 1012.3
20260508032556 78 3 0.0 0.0 0.00 0.00 0.00 48 1012.3
20260508032543 69 195 0.0 1.0 0.00 0.00 0.00 62 1014.6
20260508032519 78 3 0.0 0.0 0.00 0.00 0.00 48 1012.3
20260508032141 79 3 0.0 0.0 0.00 0.00 0.00 48 1012.3
20260508032117 79 3 0.0 0.0 0.00 0.00 0.00 48 1012.3
20260508032042 69 135 0.0 0.0 0.00 0.00 0.00 61 1014.3
20260508032034 79 3 0.0 0.0 0.00 0.00 0.00 48 1012.3
20260508031958 79 3 0.0 0.0 0.00 0.00 0.00 48 1012.3
20260508031915 79 3 0.0 0.0 0.00 0.00 0.00 47 1012.3
20260508031851 79 3 0.0 0.0 0.00 0.00 0.00 47 1012.3
20260508031828 79 3 0.0 0.0 0.00 0.00 0.00 48 1012.3
20260508031758 79 3 0.0 0.0 0.00 0.00 0.00 47 1012.3
20260508031728 79 3 0.0 1.0 0.00 0.00 0.00 48 1012.3
20260508031638 79 231 0.0 0.0 0.00 0.00 0.00 47 1012.2
20260508031621 79 231 0.0 0.0 0.00 0.00 0.00 47 1012.2
20260508031558 79 231 0.0 0.0 0.00 0.00 0.00 48 1012.2
20260508031538 69 188 0.0 2.0 0.00 0.00 0.00 61 1014.2
20260508031357 79 231 0.0 0.0 0.00 0.00 0.00 47 1012.2
20260508031314 79 231 0.0 0.0 0.00 0.00 0.00 47 1012.2
20260508031231 79 231 0.0 0.0 0.00 0.00 0.00 47 1012.2
20260508031200 80 231 0.0 0.0 0.00 0.00 0.00 46 1012.2
20260508031034 70 37 0.0 2.0 0.00 0.00 0.00 61 1014.2
20260508030952 80 231 0.0 0.0 0.00 0.00 0.00 47 1012.2
20260508030922 80 231 0.0 0.0 0.00 0.00 0.00 46 1012.2
20260508030729 80 231 0.0 0.0 0.00 0.00 0.00 47 1012.2
20260508030535 80 231 0.0 0.0 0.00 0.00 0.00 46 1012.2
20260508030531 70 89 0.0 2.0 0.00 0.00 0.00 60 1014.3
20260508030504 80 231 0.0 2.0 0.00 0.00 0.00 46 1012.2
20260508030414 80 296 0.0 0.0 0.00 0.00 0.00 47 1012.3
20260508030338 80 296 0.0 0.0 0.00 0.00 0.00 47 1012.3
20260508030301 80 296 0.0 0.0 0.00 0.00 0.00 47 1012.3
20260508030029 70 348 0.0 3.0 0.00 0.00 0.00 60 1014.0
20260508025944 80 296 0.0 0.0 0.00 0.00 0.00 46 1012.3
20260508025855 80 296 0.0 0.0 0.00 0.00 0.00 46 1012.3
20260508025812 80 296 0.0 0.0 0.00 0.00 0.00 46 1012.3
20260508025728 80 296 0.0 0.0 0.00 0.00 0.00 46 1012.3
20260508025658 81 296 0.0 0.0 0.00 0.00 0.00 46 1012.3
20260508025627 81 296 0.0 2.0 0.00 0.00 0.00 46 1012.3
20260508025524 71 321 2.0 3.0 0.00 0.00 0.00 59 1014.1
20260508025417 81 304 0.0 0.0 0.00 0.00 0.00 46 1012.3
20260508025340 81 304 0.0 0.0 0.00 0.00 0.00 46 1012.3
20260508025257 80 304 0.0 0.0 0.00 0.00 0.00 46 1012.3
20260508025206 80 304 0.0 0.0 0.00 0.00 0.00 46 1012.3
20260508025022 71 339 2.0 3.0 0.00 0.00 0.00 59 1013.9
20260508025004 80 304 0.0 0.0 0.00 0.00 0.00 46 1012.3
20260508024940 80 304 0.0 0.0 0.00 0.00 0.00 45 1012.3
20260508024857 80 304 0.0 0.0 0.00 0.00 0.00 45 1012.3
20260508024827 81 304 0.0 0.0 0.00 0.00 0.00 45 1012.3
20260508024804 81 304 0.0 0.0 0.00 0.00 0.00 44 1012.3
20260508024734 81 304 0.0 0.0 0.00 0.00 0.00 45 1012.3
20260508024702 81 304 0.0 0.0 0.00 0.00 0.00 44 1012.3
20260508024632 81 304 0.0 0.0 0.00 0.00 0.00 44 1012.3
20260508024602 82 304 0.0 2.0 0.00 0.00 0.00 44 1012.3
20260508024525 82 282 3.0 0.0 0.00 0.00 0.00 44 1012.4
20260508024518 71 157 0.0 1.0 0.00 0.00 0.00 58 1013.9
20260508024508 82 282 3.0 0.0 0.00 0.00 0.00 45 1012.4
20260508024425 82 282 3.0 0.0 0.00 0.00 0.00 44 1012.4
20260508024206 82 282 3.0 0.0 0.00 0.00 0.00 44 1012.4
20260508024129 82 282 3.0 0.0 0.00 0.00 0.00 44 1012.4
20260508024059 82 282 3.0 0.0 0.00 0.00 0.00 44 1012.4
20260508024029 81 282 3.0 0.0 0.00 0.00 0.00 44 1012.4
20260508024015 71 76 0.0 2.0 0.00 0.00 0.00 57 1013.9
20260508023959 81 282 3.0 0.0 0.00 0.00 0.00 44 1012.4
20260508023935 82 282 3.0 0.0 0.00 0.00 0.00 44 1012.4
20260508023904 82 282 3.0 0.0 0.00 0.00 0.00 43 1012.4
20260508023710 83 282 3.0 0.0 0.00 0.00 0.00 43 1012.4
20260508023640 83 282 3.0 0.0 0.00 0.00 0.00 43 1012.4
20260508023610 83 282 3.0 3.0 0.00 0.00 0.00 42 1012.4
20260508023513 84 38 2.0 0.0 0.00 0.00 0.00 41 1012.3
20260508023511 72 321 0.0 2.0 0.00 0.00 0.00 57 1014.0
20260508023424 85 38 2.0 0.0 0.00 0.00 0.00 41 1012.3
20260508023341 85 38 2.0 0.0 0.00 0.00 0.00 41 1012.3
20260508023305 85 38 2.0 0.0 0.00 0.00 0.00 41 1012.3
20260508023209 85 38 2.0 0.0 0.00 0.00 0.00 41 1012.3
20260508023138 85 38 2.0 0.0 0.00 0.00 0.00 42 1012.3
20260508023115 84 38 2.0 0.0 0.00 0.00 0.00 41 1012.3
20260508023045 84 38 2.0 0.0 0.00 0.00 0.00 41 1012.3
20260508023011 84 38 2.0 0.0 0.00 0.00 0.00 42 1012.3
20260508023009 72 116 1.0 2.0 0.00 0.00 0.00 56 1013.8
20260508022634 84 38 2.0 0.0 0.00 0.00 0.00 41 1012.3
20260508022610 84 38 2.0 0.0 0.00 0.00 0.00 41 1012.3
20260508022539 84 38 2.0 3.0 0.00 0.00 0.00 42 1012.3
20260508022504 73 51 2.0 2.0 0.00 0.00 0.00 55 1013.7
20260508022441 84 326 2.0 0.0 0.00 0.00 0.00 42 1012.6
20260508022418 84 326 2.0 0.0 0.00 0.00 0.00 42 1012.6
20260508022354 84 326 2.0 0.0 0.00 0.00 0.00 41 1012.6
20260508022324 84 326 2.0 0.0 0.00 0.00 0.00 42 1012.6
20260508022254 84 326 2.0 0.0 0.00 0.00 0.00 41 1012.6
20260508022218 84 326 2.0 0.0 0.00 0.00 0.00 41 1012.6
20260508022142 84 326 2.0 0.0 0.00 0.00 0.00 41 1012.6
20260508022118 84 326 2.0 0.0 0.00 0.00 0.00 41 1012.6
20260508022054 84 326 2.0 0.0 0.00 0.00 0.00 40 1012.6
20260508022011 84 326 2.0 0.0 0.00 0.00 0.00 41 1012.6
20260508022001 73 296 3.0 3.0 0.00 0.00 0.00 55 1013.5
20260508021758 84 326 2.0 0.0 0.00 0.00 0.00 41 1012.6
20260508021735 84 326 2.0 0.0 0.00 0.00 0.00 41 1012.6
20260508021704 84 326 2.0 2.0 0.00 0.00 0.00 41 1012.6
20260508021635 84 320 1.0 0.0 0.00 0.00 0.00 41 1012.4
20260508021458 74 327 2.0 2.0 0.00 0.00 0.00 54 1013.5
20260508021439 84 320 1.0 0.0 0.00 0.00 0.00 42 1012.4
20260508021415 83 320 1.0 0.0 0.00 0.00 0.00 42 1012.4
20260508021345 83 320 1.0 0.0 0.00 0.00 0.00 41 1012.4
20260508021315 84 320 1.0 0.0 0.00 0.00 0.00 41 1012.4
20260508021245 84 320 1.0 0.0 0.00 0.00 0.00 40 1012.4
20260508021215 85 320 1.0 0.0 0.00 0.00 0.00 40 1012.4
20260508021144 85 320 1.0 0.0 0.00 0.00 0.00 40 1012.4
20260508021114 85 320 1.0 0.0 0.00 0.00 0.00 39 1012.4
20260508021044 86 320 1.0 0.0 0.00 0.00 0.00 38 1012.4
20260508020953 74 304 1.0 2.0 0.00 0.00 0.00 54 1013.5
20260508020823 87 320 1.0 0.0 0.00 0.00 0.00 38 1012.4
20260508020753 87 320 1.0 0.0 0.00 0.00 0.00 37 1012.4
20260508020723 87 320 1.0 0.0 0.00 0.00 0.00 36 1012.4
20260508020653 87 320 1.0 0.0 0.00 0.00 0.00 37 1012.4
20260508020459 88 320 1.0 0.0 0.00 0.00 0.00 37 1012.4
20260508020451 75 300 1.0 2.0 0.00 0.00 0.00 54 1013.4
20260508020428 88 320 1.0 2.0 0.00 0.00 0.00 38 1012.4
20260508020352 87 15 2.0 0.0 0.00 0.00 0.00 38 1012.4
20260508020130 87 15 2.0 0.0 0.00 0.00 0.00 38 1012.4
20260508015948 75 336 2.0 2.0 0.00 0.00 0.00 53 1013.6
20260508015911 87 15 2.0 0.0 0.00 0.00 0.00 38 1012.4
20260508015847 86 15 2.0 0.0 0.00 0.00 0.00 38 1012.4
20260508015824 86 15 2.0 0.0 0.00 0.00 0.00 38 1012.4
20260508015800 87 15 2.0 0.0 0.00 0.00 0.00 38 1012.4
20260508015730 87 15 2.0 0.0 0.00 0.00 0.00 39 1012.4
20260508015700 87 15 2.0 0.0 0.00 0.00 0.00 38 1012.4
20260508015630 87 15 2.0 0.0 0.00 0.00 0.00 38 1012.4
20260508015600 86 15 2.0 0.0 0.00 0.00 0.00 38 1012.4
20260508015510 86 15 2.0 0.0 0.00 0.00 0.00 38 1012.4
20260508015446 75 257 0.0 3.0 0.00 0.00 0.00 53 1013.3
20260508015439 86 15 2.0 0.0 0.00 0.00 0.00 39 1012.4
20260508015409 85 15 2.0 0.0 0.00 0.00 0.00 40 1012.4
20260508015346 85 15 2.0 0.0 0.00 0.00 0.00 39 1012.4
20260508015322 85 15 2.0 3.0 0.00 0.00 0.00 39 1012.4
20260508015232 85 231 4.0 0.0 0.00 0.00 0.00 39 1012.5
20260508015209 85 231 4.0 0.0 0.00 0.00 0.00 39 1012.5
20260508015139 86 231 4.0 0.0 0.00 0.00 0.00 39 1012.5
20260508015055 86 231 4.0 0.0 0.00 0.00 0.00 39 1012.5
20260508015011 86 231 4.0 0.0 0.00 0.00 0.00 39 1012.5
20260508014943 75 326 2.0 3.0 0.00 0.00 0.00 53 1013.4
20260508014934 86 231 4.0 0.0 0.00 0.00 0.00 39 1012.5
20260508014532 86 231 4.0 0.0 0.00 0.00 0.00 40 1012.5
20260508014439 76 1 2.0 3.0 0.00 0.00 0.00 53 1013.2
20260508014312 85 231 4.0 0.0 0.00 0.00 0.00 40 1012.5
20260508014242 85 231 4.0 0.0 0.00 0.00 0.00 39 1012.5
20260508014212 86 231 4.0 4.0 0.00 0.00 0.00 39 1012.5
20260508014142 86 281 4.0 0.0 0.00 0.00 0.00 39 1012.5
20260508014118 86 281 4.0 0.0 0.00 0.00 0.00 38 1012.5
20260508014055 86 281 4.0 0.0 0.00 0.00 0.00 38 1012.5
20260508014025 86 281 4.0 0.0 0.00 0.00 0.00 39 1012.5
20260508013948 86 281 4.0 0.0 0.00 0.00 0.00 39 1012.5
20260508013935 76 315 1.0 3.0 0.00 0.00 0.00 51 1013.4
20260508013905 86 281 4.0 0.0 0.00 0.00 0.00 39 1012.5
20260508013808 86 281 4.0 0.0 0.00 0.00 0.00 39 1012.5
20260508013712 85 281 4.0 0.0 0.00 0.00 0.00 39 1012.5
20260508013616 85 281 4.0 0.0 0.00 0.00 0.00 40 1012.5
20260508013546 85 281 4.0 0.0 0.00 0.00 0.00 40 1012.5
20260508013516 86 281 4.0 0.0 0.00 0.00 0.00 40 1012.5
20260508013431 77 176 0.0 2.0 0.00 0.00 0.00 50 1013.3
20260508013407 86 281 4.0 0.0 0.00 0.00 0.00 40 1012.5
20260508013337 86 281 4.0 0.0 0.00 0.00 0.00 39 1012.5
20260508013307 87 281 4.0 6.0 0.00 0.00 0.00 39 1012.5
20260508012929 77 38 0.0 2.0 0.00 0.00 0.00 50 1013.3
20260508012923 87 326 0.0 0.0 0.00 0.00 0.00 39 1012.5
20260508012859 87 326 0.0 0.0 0.00 0.00 0.00 39 1012.5
20260508012829 87 326 0.0 0.0 0.00 0.00 0.00 40 1012.5
20260508012759 87 326 0.0 0.0 0.00 0.00 0.00 40 1012.5
20260508012729 86 326 0.0 0.0 0.00 0.00 0.00 40 1012.5
20260508012503 86 326 0.0 0.0 0.00 0.00 0.00 40 1012.5
20260508012425 78 306 2.0 2.0 0.00 0.00 0.00 49 1013.2
20260508012406 86 326 0.0 0.0 0.00 0.00 0.00 40 1012.5
20260508012323 86 326 0.0 0.0 0.00 0.00 0.00 41 1012.5
20260508012252 85 326 0.0 0.0 0.00 0.00 0.00 41 1012.5
20260508012222 85 326 0.0 2.0 0.00 0.00 0.00 41 1012.5
20260508012015 85 295 5.0 0.0 0.00 0.00 0.00 41 1012.6
20260508011925 85 295 5.0 0.0 0.00 0.00 0.00 41 1012.6
20260508011923 78 240 0.0 3.0 0.00 0.00 0.00 49 1013.1
20260508011901 85 295 5.0 0.0 0.00 0.00 0.00 41 1012.6
20260508011838 85 295 5.0 0.0 0.00 0.00 0.00 40 1012.6
20260508011748 86 295 5.0 0.0 0.00 0.00 0.00 40 1012.6
20260508011712 86 295 5.0 0.0 0.00 0.00 0.00 40 1012.6
20260508011636 86 295 5.0 0.0 0.00 0.00 0.00 40 1012.6
20260508011612 86 295 5.0 0.0 0.00 0.00 0.00 40 1012.6
20260508011421 79 291 0.0 4.0 0.00 0.00 0.00 48 1013.3
20260508011235 86 295 5.0 0.0 0.00 0.00 0.00 40 1012.6
20260508011203 86 295 5.0 0.0 0.00 0.00 0.00 41 1012.6
20260508011132 86 295 5.0 0.0 0.00 0.00 0.00 40 1012.6
20260508011102 87 295 5.0 5.0 0.00 0.00 0.00 40 1012.6
20260508011025 86 0 2.0 0.0 0.00 0.00 0.00 40 1012.5
20260508010954 86 0 2.0 0.0 0.00 0.00 0.00 41 1012.5
20260508010931 86 0 2.0 0.0 0.00 0.00 0.00 40 1012.5
20260508010918 79 335 0.0 3.0 0.00 0.00 0.00 48 1013.4
20260508010907 86 0 2.0 0.0 0.00 0.00 0.00 41 1012.5
20260508010726 86 0 2.0 0.0 0.00 0.00 0.00 41 1012.5
20260508010643 86 0 2.0 0.0 0.00 0.00 0.00 41 1012.5
20260508010455 86 0 2.0 0.0 0.00 0.00 0.00 40 1012.5
20260508010415 80 215 1.0 4.0 0.00 0.00 0.00 47 1013.3
20260508010254 85 0 2.0 0.0 0.00 0.00 0.00 41 1012.5
20260508010217 85 0 2.0 0.0 0.00 0.00 0.00 41 1012.5
20260508010154 85 0 2.0 0.0 0.00 0.00 0.00 41 1012.5
20260508010124 86 0 2.0 0.0 0.00 0.00 0.00 41 1012.5
20260508010040 86 0 2.0 0.0 0.00 0.00 0.00 40 1012.5
20260508005954 86 0 2.0 0.0 0.00 0.00 0.00 40 1012.5
20260508005912 80 15 3.0 3.0 0.00 0.00 0.00 47 1013.3
20260508005728 86 210 1.0 0.0 0.00 0.00 0.00 41 1012.7
20260508005528 86 210 1.0 0.0 0.00 0.00 0.00 41 1012.7
20260508005451 86 210 1.0 0.0 0.00 0.00 0.00 41 1012.7
20260508005428 86 210 1.0 0.0 0.00 0.00 0.00 41 1012.7
20260508005409 80 40 2.0 5.0 0.00 0.00 0.00 46 1013.1
20260508005345 86 210 1.0 0.0 0.00 0.00 0.00 40 1012.7
20260508005309 85 210 1.0 0.0 0.00 0.00 0.00 41 1012.7
20260508005238 86 210 1.0 0.0 0.00 0.00 0.00 40 1012.7
20260508005208 86 210 1.0 0.0 0.00 0.00 0.00 41 1012.7
20260508005138 86 210 1.0 0.0 0.00 0.00 0.00 40 1012.7
20260508005114 86 210 1.0 0.0 0.00 0.00 0.00 41 1012.7
20260508005037 86 210 1.0 0.0 0.00 0.00 0.00 40 1012.7
20260508004939 86 210 1.0 0.0 0.00 0.00 0.00 41 1012.7
20260508004916 86 210 1.0 0.0 0.00 0.00 0.00 41 1012.7
20260508004906 81 304 1.0 3.0 0.00 0.00 0.00 46 1013.2
20260508004846 86 210 1.0 2.0 0.00 0.00 0.00 41 1012.7
20260508004809 86 77 0.0 0.0 0.00 0.00 0.00 40 1012.7
20260508004738 86 77 0.0 0.0 0.00 0.00 0.00 41 1012.7
20260508004715 86 77 0.0 0.0 0.00 0.00 0.00 41 1012.7
20260508004651 85 77 0.0 0.0 0.00 0.00 0.00 41 1012.7
20260508004621 85 77 0.0 0.0 0.00 0.00 0.00 41 1012.7
20260508004604 85 77 0.0 0.0 0.00 0.00 0.00 41 1012.7
20260508004541 86 77 0.0 0.0 0.00 0.00 0.00 40 1012.7
20260508004401 80 27 1.0 4.0 0.00 0.00 0.00 45 1013.3
20260508004139 85 77 0.0 0.0 0.00 0.00 0.00 41 1012.7
20260508004108 86 77 0.0 0.0 0.00 0.00 0.00 41 1012.7
20260508004044 86 77 0.0 0.0 0.00 0.00 0.00 41 1012.7
20260508004014 86 77 0.0 3.0 0.00 0.00 0.00 41 1012.7
20260508003858 82 258 0.0 2.0 0.00 0.00 0.00 44 1013.3
20260508003755 86 298 3.0 0.0 0.00 0.00 0.00 41 1012.9
20260508003731 86 298 3.0 0.0 0.00 0.00 0.00 41 1012.9
20260508003707 85 298 3.0 0.0 0.00 0.00 0.00 41 1012.9
20260508003439 85 298 3.0 0.0 0.00 0.00 0.00 42 1012.9
20260508003402 85 298 3.0 0.0 0.00 0.00 0.00 42 1012.9
20260508003358 85 298 3.0 0.0 0.00 0.00 0.00 43 1012.9
20260508003355 81 344 2.0 5.0 0.00 0.00 0.00 44 1013.4
20260508003119 85 298 3.0 0.0 0.00 0.00 0.00 42 1012.9
20260508003049 86 298 3.0 0.0 0.00 0.00 0.00 41 1012.9
20260508003025 86 298 3.0 0.0 0.00 0.00 0.00 41 1012.9
20260508002947 86 298 3.0 3.0 0.00 0.00 0.00 41 1012.9
20260508002911 86 245 3.0 0.0 0.00 0.00 0.00 42 1012.8
20260508002852 85 17 2.0 3.0 0.00 0.00 0.00 41 1013.3
20260508002711 86 245 3.0 0.0 0.00 0.00 0.00 41 1012.8
20260508002647 85 245 3.0 0.0 0.00 0.00 0.00 42 1012.8
20260508002617 85 245 3.0 0.0 0.00 0.00 0.00 41 1012.8
20260508002553 86 245 3.0 0.0 0.00 0.00 0.00 41 1012.8
20260508002523 86 245 3.0 0.0 0.00 0.00 0.00 42 1012.8
20260508002440 86 245 3.0 0.0 0.00 0.00 0.00 41 1012.8
20260508002349 84 298 0.0 3.0 0.00 0.00 0.00 42 1013.4
20260508002253 86 245 3.0 0.0 0.00 0.00 0.00 41 1012.8
20260508002202 86 245 3.0 0.0 0.00 0.00 0.00 41 1012.8
20260508002139 86 245 3.0 0.0 0.00 0.00 0.00 42 1012.8
20260508002115 86 245 3.0 0.0 0.00 0.00 0.00 41 1012.8
20260508002045 86 245 3.0 0.0 0.00 0.00 0.00 42 1012.8
20260508002021 86 245 3.0 3.0 0.00 0.00 0.00 41 1012.8
20260508001951 86 240 3.0 0.0 0.00 0.00 0.00 41 1013.0
20260508001928 86 240 3.0 0.0 0.00 0.00 0.00 42 1013.0
20260508001904 86 240 3.0 0.0 0.00 0.00 0.00 41 1013.0
20260508001845 84 224 2.0 3.0 0.00 0.00 0.00 42 1013.2
20260508001717 85 240 3.0 0.0 0.00 0.00 0.00 42 1013.0
20260508001523 85 240 3.0 0.0 0.00 0.00 0.00 41 1013.0
20260508001453 86 240 3.0 0.0 0.00 0.00 0.00 42 1013.0
20260508001423 86 240 3.0 0.0 0.00 0.00 0.00 41 1013.0
20260508001341 84 256 2.0 4.0 0.00 0.00 0.00 41 1013.2
20260508001334 86 240 3.0 0.0 0.00 0.00 0.00 41 1013.0
20260508001127 86 240 3.0 0.0 0.00 0.00 0.00 42 1013.0
20260508001057 86 240 3.0 0.0 0.00 0.00 0.00 41 1013.0
20260508001020 86 240 3.0 0.0 0.00 0.00 0.00 41 1013.0
20260508000957 86 240 3.0 0.0 0.00 0.00 0.00 41 1013.0
20260508000838 84 276 3.0 6.0 0.00 0.00 0.00 41 1013.3
20260508000620 86 315 2.0 0.0 0.00 0.00 0.00 41 1013.0
20260508000531 86 315 2.0 0.0 0.00 0.00 0.00 42 1013.0
20260508000507 86 315 2.0 0.0 0.00 0.00 0.00 42 1013.0
20260508000437 86 315 2.0 0.0 0.00 0.00 0.00 41 1013.0
20260508000335 87 261 2.0 4.0 0.00 0.00 0.00 37 1013.2
20260508000257 86 315 2.0 0.0 0.00 0.00 0.00 41 1013.0
20260508000227 86 315 2.0 0.0 0.00 0.00 0.00 41 1013.0
20260508000150 86 315 2.0 0.0 0.00 0.00 0.00 41 1013.0
20260508000054 86 295 3.0 0.0 0.00 0.00 0.00 41 1013.0
20260508000024 86 295 3.0 0.0 0.00 0.00 0.00 42 1013.0
20260507235938 86 295 3.0 0.0 0.00 0.00 0.00 42 1013.0
20260507235848 86 295 3.0 0.0 0.00 0.00 0.00 41 1013.0
20260507235831 87 284 2.0 2.0 0.00 0.00 0.00 37 1013.3
20260507235818 87 295 3.0 0.0 0.00 0.00 0.00 41 1013.0
20260507235624 86 295 3.0 0.0 0.00 0.00 0.00 42 1013.0
20260507235554 86 295 3.0 0.0 0.00 0.00 0.00 43 1013.0
20260507235524 86 295 3.0 0.0 0.00 0.00 0.00 42 1013.0
20260507235447 86 295 3.0 0.0 0.00 0.00 0.00 42 1013.0
20260507235411 86 295 3.0 0.0 0.00 0.00 0.00 42 1013.0
20260507235329 87 293 1.0 2.0 0.00 0.00 0.00 38 1013.2
20260507235132 86 334 2.0 0.0 0.00 0.00 0.00 42 1013.2
20260507235108 86 334 2.0 0.0 0.00 0.00 0.00 41 1013.2
20260507234914 87 334 2.0 0.0 0.00 0.00 0.00 42 1013.2
20260507234850 86 334 2.0 0.0 0.00 0.00 0.00 42 1013.2
20260507234827 86 334 2.0 0.0 0.00 0.00 0.00 42 1013.2
20260507234825 86 260 4.0 4.0 0.00 0.00 0.00 39 1013.4
20260507234803 87 334 2.0 0.0 0.00 0.00 0.00 41 1013.2
20260507234706 87 334 2.0 0.0 0.00 0.00 0.00 41 1013.2
20260507234401 87 334 2.0 0.0 0.00 0.00 0.00 42 1013.2
20260507234331 86 334 2.0 0.0 0.00 0.00 0.00 42 1013.2
20260507234322 86 284 2.0 2.0 0.00 0.00 0.00 39 1013.3
20260507234241 86 334 2.0 0.0 0.00 0.00 0.00 42 1013.2
20260507234158 86 334 2.0 0.0 0.00 0.00 0.00 42 1013.2
20260507234128 86 334 2.0 0.0 0.00 0.00 0.00 43 1013.2
20260507234104 86 334 2.0 4.0 0.00 0.00 0.00 42 1013.2
20260507234008 86 272 2.0 0.0 0.00 0.00 0.00 42 1013.1
20260507233821 86 272 2.0 0.0 0.00 0.00 0.00 42 1013.1
20260507233818 86 223 2.0 6.0 0.00 0.00 0.00 39 1013.5
20260507233549 87 272 2.0 0.0 0.00 0.00 0.00 41 1013.1
20260507233519 87 272 2.0 0.0 0.00 0.00 0.00 41 1013.1
20260507233436 87 272 2.0 0.0 0.00 0.00 0.00 41 1013.1
20260507233406 87 272 2.0 0.0 0.00 0.00 0.00 41 1013.1
20260507233342 87 272 2.0 0.0 0.00 0.00 0.00 42 1013.1
20260507233316 85 251 3.0 5.0 0.00 0.00 0.00 39 1013.4
20260507233312 87 272 2.0 0.0 0.00 0.00 0.00 41 1013.1
20260507233248 87 272 2.0 0.0 0.00 0.00 0.00 41 1013.1
20260507233224 87 272 2.0 2.0 0.00 0.00 0.00 41 1013.1
20260507233148 87 240 4.0 0.0 0.00 0.00 0.00 41 1013.3
20260507233124 87 240 4.0 0.0 0.00 0.00 0.00 42 1013.3
20260507232845 87 240 4.0 0.0 0.00 0.00 0.00 41 1013.3
20260507232814 87 264 0.0 4.0 0.00 0.00 0.00 39 1013.3
20260507232808 87 240 4.0 0.0 0.00 0.00 0.00 41 1013.3
20260507232738 87 240 4.0 0.0 0.00 0.00 0.00 42 1013.3
20260507232706 87 240 4.0 0.0 0.00 0.00 0.00 41 1013.3
20260507232458 87 240 4.0 0.0 0.00 0.00 0.00 41 1013.3
20260507232441 87 240 4.0 0.0 0.00 0.00 0.00 42 1013.3
20260507232417 87 240 4.0 0.0 0.00 0.00 0.00 41 1013.3
20260507232347 87 240 4.0 0.0 0.00 0.00 0.00 43 1013.3
20260507232310 86 296 1.0 3.0 0.00 0.00 0.00 40 1013.5
20260507232258 87 240 4.0 0.0 0.00 0.00 0.00 42 1013.3
20260507232241 87 240 4.0 0.0 0.00 0.00 0.00 42 1013.3
20260507232211 87 240 4.0 4.0 0.00 0.00 0.00 42 1013.3
20260507232115 87 300 2.0 0.0 0.00 0.00 0.00 42 1013.4
20260507232045 87 300 2.0 0.0 0.00 0.00 0.00 42 1013.4
20260507232022 87 300 2.0 0.0 0.00 0.00 0.00 41 1013.4
20260507231951 87 300 2.0 0.0 0.00 0.00 0.00 42 1013.4
20260507231928 87 300 2.0 0.0 0.00 0.00 0.00 41 1013.4
20260507231832 87 300 2.0 0.0 0.00 0.00 0.00 42 1013.4
20260507231807 85 262 2.0 6.0 0.00 0.00 0.00 41 1013.3
20260507231802 87 300 2.0 0.0 0.00 0.00 0.00 42 1013.4
20260507231738 87 300 2.0 0.0 0.00 0.00 0.00 41 1013.4
20260507231550 87 300 2.0 0.0 0.00 0.00 0.00 42 1013.4
20260507231513 87 300 2.0 0.0 0.00 0.00 0.00 42 1013.4
20260507231450 87 300 2.0 0.0 0.00 0.00 0.00 43 1013.4
20260507231354 87 300 2.0 0.0 0.00 0.00 0.00 42 1013.4
20260507231304 86 93 1.0 4.0 0.00 0.00 0.00 41 1013.6
20260507231233 86 300 2.0 0.0 0.00 0.00 0.00 42 1013.4
20260507231156 86 300 2.0 2.0 0.00 0.00 0.00 42 1013.4
20260507231119 86 319 2.0 0.0 0.00 0.00 0.00 42 1013.4
20260507231055 86 319 2.0 0.0 0.00 0.00 0.00 43 1013.4
20260507231032 87 319 2.0 0.0 0.00 0.00 0.00 43 1013.4
20260507231001 87 319 2.0 0.0 0.00 0.00 0.00 42 1013.4
20260507230800 86 333 0.0 5.0 0.00 0.00 0.00 40 1013.3
20260507230742 87 319 2.0 0.0 0.00 0.00 0.00 42 1013.4
20260507230659 87 319 2.0 0.0 0.00 0.00 0.00 42 1013.4
20260507230616 87 319 2.0 0.0 0.00 0.00 0.00 42 1013.4
20260507230552 87 319 2.0 0.0 0.00 0.00 0.00 43 1013.4
20260507230522 87 319 2.0 0.0 0.00 0.00 0.00 42 1013.4
20260507230446 87 319 2.0 0.0 0.00 0.00 0.00 42 1013.4
20260507230422 87 319 2.0 0.0 0.00 0.00 0.00 41 1013.4
20260507230258 86 9 1.0 4.0 0.00 0.00 0.00 41 1013.6
20260507230222 87 319 2.0 0.0 0.00 0.00 0.00 42 1013.4
20260507230152 87 319 2.0 4.0 0.00 0.00 0.00 42 1013.4
20260507230056 87 20 2.0 0.0 0.00 0.00 0.00 42 1013.3
20260507225908 87 20 2.0 0.0 0.00 0.00 0.00 41 1013.3
20260507225838 87 20 2.0 0.0 0.00 0.00 0.00 41 1013.3
20260507225808 87 20 2.0 0.0 0.00 0.00 0.00 42 1013.3
20260507225757 86 327 2.0 5.0 0.00 0.00 0.00 41 1013.5
20260507225732 87 20 2.0 0.0 0.00 0.00 0.00 42 1013.3
20260507225655 87 20 2.0 0.0 0.00 0.00 0.00 42 1013.3
20260507225618 87 20 2.0 0.0 0.00 0.00 0.00 42 1013.3
20260507225542 87 20 2.0 0.0 0.00 0.00 0.00 42 1013.3
20260507225518 87 20 2.0 0.0 0.00 0.00 0.00 42 1013.3
20260507225428 87 20 2.0 0.0 0.00 0.00 0.00 42 1013.3
20260507225357 87 20 2.0 3.0 0.00 0.00 0.00 42 1013.3
20260507225320 87 289 4.0 0.0 0.00 0.00 0.00 42 1013.6
20260507225254 86 306 2.0 4.0 0.00 0.00 0.00 40 1013.5
20260507225231 87 289 4.0 0.0 0.00 0.00 0.00 41 1013.6
20260507225155 87 289 4.0 0.0 0.00 0.00 0.00 42 1013.6
20260507225124 87 289 4.0 0.0 0.00 0.00 0.00 41 1013.6
20260507224852 87 289 4.0 0.0 0.00 0.00 0.00 42 1013.6
20260507224828 87 289 4.0 0.0 0.00 0.00 0.00 42 1013.6
20260507224805 86 289 4.0 0.0 0.00 0.00 0.00 42 1013.6
20260507224750 86 301 3.0 4.0 0.00 0.00 0.00 41 1013.6
20260507224741 86 289 4.0 0.0 0.00 0.00 0.00 42 1013.6
20260507224554 87 289 4.0 0.0 0.00 0.00 0.00 41 1013.6
20260507224341 86 289 4.0 0.0 0.00 0.00 0.00 42 1013.6
20260507224311 86 289 4.0 4.0 0.00 0.00 0.00 42 1013.6
20260507224247 86 358 1.0 4.0 0.00 0.00 0.00 41 1013.7
20260507224234 86 105 1.0 0.0 0.00 0.00 0.00 42 1013.5
20260507224138 86 105 1.0 0.0 0.00 0.00 0.00 42 1013.5
20260507224055 85 105 1.0 0.0 0.00 0.00 0.00 42 1013.5
20260507224001 85 105 1.0 0.0 0.00 0.00 0.00 42 1013.5
20260507223911 85 105 1.0 0.0 0.00 0.00 0.00 42 1013.5
20260507223841 85 105 1.0 0.0 0.00 0.00 0.00 43 1013.5
20260507223810 85 105 1.0 0.0 0.00 0.00 0.00 41 1013.5
20260507223743 86 350 2.0 3.0 0.00 0.00 0.00 41 1013.8
20260507223602 84 105 1.0 0.0 0.00 0.00 0.00 42 1013.5
20260507223532 84 105 1.0 0.0 0.00 0.00 0.00 41 1013.5
20260507223502 84 105 1.0 0.0 0.00 0.00 0.00 42 1013.5
20260507223308 84 105 1.0 2.0 0.00 0.00 0.00 42 1013.5
20260507223239 86 298 1.0 5.0 0.00 0.00 0.00 42 1013.7
20260507223231 84 209 3.0 0.0 0.00 0.00 0.00 41 1013.7
20260507223024 84 209 3.0 0.0 0.00 0.00 0.00 42 1013.7
20260507222948 83 209 3.0 0.0 0.00 0.00 0.00 42 1013.7
20260507222904 84 209 3.0 0.0 0.00 0.00 0.00 41 1013.7
20260507222821 84 209 3.0 0.0 0.00 0.00 0.00 41 1013.7
20260507222758 84 209 3.0 0.0 0.00 0.00 0.00 41 1013.7
20260507222736 86 278 2.0 4.0 0.00 0.00 0.00 41 1013.7
20260507222728 84 209 3.0 0.0 0.00 0.00 0.00 42 1013.7
20260507222448 83 209 3.0 0.0 0.00 0.00 0.00 42 1013.7
20260507222359 83 209 3.0 0.0 0.00 0.00 0.00 42 1013.7
20260507222329 83 209 3.0 3.0 0.00 0.00 0.00 44 1013.7
20260507222232 86 316 2.0 4.0 0.00 0.00 0.00 41 1013.9
20260507222154 82 292 0.0 0.0 0.00 0.00 0.00 43 1013.9
20260507222124 83 292 0.0 0.0 0.00 0.00 0.00 42 1013.9
20260507221858 84 292 0.0 0.0 0.00 0.00 0.00 41 1013.9
20260507221834 83 292 0.0 0.0 0.00 0.00 0.00 42 1013.9
20260507221811 83 292 0.0 0.0 0.00 0.00 0.00 42 1013.9
20260507221740 84 292 0.0 0.0 0.00 0.00 0.00 41 1013.9
20260507221730 86 252 2.0 5.0 0.00 0.00 0.00 42 1013.6
20260507221553 84 292 0.0 0.0 0.00 0.00 0.00 42 1013.9
20260507221523 84 292 0.0 0.0 0.00 0.00 0.00 43 1013.9
20260507221453 84 292 0.0 0.0 0.00 0.00 0.00 41 1013.9
20260507221402 84 292 0.0 0.0 0.00 0.00 0.00 42 1013.9
20260507221226 86 321 2.0 4.0 0.00 0.00 0.00 41 1013.7
20260507221222 83 20 0.0 0.0 0.00 0.00 0.00 42 1013.9
20260507221159 83 20 0.0 0.0 0.00 0.00 0.00 43 1013.9
20260507221128 83 20 0.0 0.0 0.00 0.00 0.00 42 1013.9
20260507221039 83 20 0.0 0.0 0.00 0.00 0.00 42 1013.9
20260507220722 86 308 1.0 4.0 0.00 0.00 0.00 41 1013.8
20260507220503 84 20 0.0 0.0 0.00 0.00 0.00 42 1013.9
20260507220439 84 20 0.0 0.0 0.00 0.00 0.00 42 1013.9
20260507220409 84 20 0.0 0.0 0.00 0.00 0.00 43 1013.9
20260507220320 83 20 0.0 0.0 0.00 0.00 0.00 43 1013.9
20260507220250 83 20 0.0 1.0 0.00 0.00 0.00 43 1013.9
20260507220221 86 6 4.0 5.0 0.00 0.00 0.00 41 1014.0
20260507220038 82 135 5.0 0.0 0.00 0.00 0.00 43 1014.1
20260507215850 82 135 5.0 0.0 0.00 0.00 0.00 44 1014.1
20260507215820 82 135 5.0 0.0 0.00 0.00 0.00 43 1014.1
20260507215744 82 135 5.0 0.0 0.00 0.00 0.00 43 1014.1
20260507215717 87 336 4.0 4.0 0.00 0.00 0.00 41 1013.8
20260507215713 82 135 5.0 0.0 0.00 0.00 0.00 44 1014.1
20260507215649 82 135 5.0 0.0 0.00 0.00 0.00 43 1014.1
20260507215606 82 135 5.0 0.0 0.00 0.00 0.00 43 1014.1
20260507215248 82 135 5.0 0.0 0.00 0.00 0.00 43 1014.1
20260507215218 82 135 5.0 0.0 0.00 0.00 0.00 44 1014.1
20260507215214 86 328 0.0 7.0 0.00 0.00 0.00 43 1013.9
20260507215148 81 135 5.0 0.0 0.00 0.00 0.00 45 1014.1
20260507215118 81 135 5.0 0.0 0.00 0.00 0.00 44 1014.1
20260507215048 81 135 5.0 5.0 0.00 0.00 0.00 44 1014.1
20260507215009 81 18 2.0 0.0 0.00 0.00 0.00 44 1014.0
20260507214925 82 18 2.0 0.0 0.00 0.00 0.00 44 1014.0
20260507214902 82 18 2.0 0.0 0.00 0.00 0.00 44 1014.0
20260507214832 81 18 2.0 0.0 0.00 0.00 0.00 45 1014.0
20260507214749 81 18 2.0 0.0 0.00 0.00 0.00 44 1014.0
20260507214725 81 18 2.0 0.0 0.00 0.00 0.00 44 1014.0
20260507214711 86 327 2.0 4.0 0.00 0.00 0.00 42 1013.8
20260507214701 81 18 2.0 0.0 0.00 0.00 0.00 45 1014.0
20260507214631 81 18 2.0 0.0 0.00 0.00 0.00 44 1014.0
20260507214601 82 18 2.0 0.0 0.00 0.00 0.00 44 1014.0
20260507214511 82 18 2.0 0.0 0.00 0.00 0.00 43 1014.0
20260507214429 82 18 2.0 0.0 0.00 0.00 0.00 44 1014.0
20260507214405 82 18 2.0 0.0 0.00 0.00 0.00 44 1014.0
20260507214335 82 18 2.0 0.0 0.00 0.00 0.00 43 1014.0
20260507214239 82 18 2.0 0.0 0.00 0.00 0.00 43 1014.0
20260507214208 86 265 3.0 5.0 0.00 0.00 0.00 42 1013.8
20260507213927 82 160 2.0 0.0 0.00 0.00 0.00 43 1014.2
20260507213734 82 160 2.0 0.0 0.00 0.00 0.00 44 1014.2
20260507213710 82 160 2.0 0.0 0.00 0.00 0.00 43 1014.2
20260507213703 86 269 2.0 6.0 0.00 0.00 0.00 42 1014.0
20260507213640 83 160 2.0 0.0 0.00 0.00 0.00 43 1014.2
20260507213616 83 160 2.0 0.0 0.00 0.00 0.00 42 1014.2
20260507213540 83 160 2.0 0.0 0.00 0.00 0.00 43 1014.2
20260507213510 83 160 2.0 0.0 0.00 0.00 0.00 43 1014.2
20260507213201 87 348 3.0 3.0 0.00 0.00 0.00 41 1014.0
20260507212859 82 83 2.0 0.0 0.00 0.00 0.00 43 1014.4
20260507212809 82 83 2.0 0.0 0.00 0.00 0.00 44 1014.4
20260507212739 81 83 2.0 0.0 0.00 0.00 0.00 44 1014.4
20260507212728 81 83 2.0 0.0 0.00 0.00 0.00 45 1014.4
20260507212657 87 306 2.0 4.0 0.00 0.00 0.00 42 1014.1
20260507212547 80 83 2.0 0.0 0.00 0.00 0.00 45 1014.4
20260507212511 80 83 2.0 0.0 0.00 0.00 0.00 45 1014.4
20260507212415 81 83 2.0 0.0 0.00 0.00 0.00 44 1014.4
20260507212240 81 83 2.0 0.0 0.00 0.00 0.00 44 1014.4
20260507212210 81 83 2.0 0.0 0.00 0.00 0.00 45 1014.4
20260507212154 87 284 2.0 4.0 0.00 0.00 0.00 42 1014.2
20260507211912 80 179 4.0 0.0 0.00 0.00 0.00 45 1014.2
20260507211835 80 179 4.0 0.0 0.00 0.00 0.00 45 1014.2
20260507211738 80 179 4.0 0.0 0.00 0.00 0.00 46 1014.2
20260507211655 80 179 4.0 0.0 0.00 0.00 0.00 45 1014.2
20260507211651 87 306 3.0 4.0 0.00 0.00 0.00 42 1014.2
20260507211612 80 179 4.0 0.0 0.00 0.00 0.00 45 1014.2
20260507211535 80 179 4.0 0.0 0.00 0.00 0.00 45 1014.2
20260507211451 80 179 4.0 0.0 0.00 0.00 0.00 45 1014.2
20260507211415 80 179 4.0 0.0 0.00 0.00 0.00 45 1014.2
20260507211351 80 179 4.0 0.0 0.00 0.00 0.00 46 1014.2
20260507211321 80 179 4.0 0.0 0.00 0.00 0.00 46 1014.2
20260507211251 80 179 4.0 0.0 0.00 0.00 0.00 45 1014.2
20260507211227 80 179 4.0 0.0 0.00 0.00 0.00 45 1014.2
20260507211203 80 179 4.0 0.0 0.00 0.00 0.00 46 1014.2
20260507211146 87 340 2.0 2.0 0.00 0.00 0.00 42 1014.2
20260507211132 80 179 4.0 6.0 0.00 0.00 0.00 46 1014.2
20260507210717 80 34 2.0 0.0 0.00 0.00 0.00 45 1014.8
20260507210644 87 325 1.0 3.0 0.00 0.00 0.00 42 1014.2
20260507210511 80 34 2.0 0.0 0.00 0.00 0.00 45 1014.8
20260507210447 80 34 2.0 0.0 0.00 0.00 0.00 46 1014.8
20260507210417 79 34 2.0 0.0 0.00 0.00 0.00 46 1014.8
20260507210354 80 34 2.0 0.0 0.00 0.00 0.00 45 1014.8
20260507210250 80 34 2.0 0.0 0.00 0.00 0.00 45 1014.8
20260507210220 80 34 2.0 0.0 0.00 0.00 0.00 44 1014.8
20260507210150 80 34 2.0 0.0 0.00 0.00 0.00 46 1014.8
20260507210140 87 220 4.0 4.0 0.00 0.00 0.00 41 1014.2
20260507210119 80 34 2.0 0.0 0.00 0.00 0.00 47 1014.8
20260507205905 80 34 2.0 3.0 0.00 0.00 0.00 46 1014.8
20260507205829 79 181 1.0 0.0 0.00 0.00 0.00 47 1014.8
20260507205746 79 181 1.0 0.0 0.00 0.00 0.00 47 1014.8
20260507205703 79 181 1.0 0.0 0.00 0.00 0.00 46 1014.8
20260507205637 87 278 1.0 4.0 0.00 0.00 0.00 42 1014.2
20260507205620 79 181 1.0 0.0 0.00 0.00 0.00 47 1014.8
20260507205230 79 181 1.0 0.0 0.00 0.00 0.00 46 1014.8
20260507205200 80 181 1.0 0.0 0.00 0.00 0.00 46 1014.8
20260507205134 87 60 1.0 3.0 0.00 0.00 0.00 42 1014.2
20260507205118 80 181 1.0 0.0 0.00 0.00 0.00 46 1014.8
20260507205048 80 181 1.0 0.0 0.00 0.00 0.00 47 1014.8
20260507205015 79 181 1.0 0.0 0.00 0.00 0.00 46 1014.8
20260507204938 79 181 1.0 0.0 0.00 0.00 0.00 46 1014.8
20260507204908 79 181 1.0 2.0 0.00 0.00 0.00 47 1014.8
20260507204837 79 99 1.0 0.0 0.00 0.00 0.00 47 1014.8
20260507204650 79 99 1.0 0.0 0.00 0.00 0.00 47 1014.8
20260507204630 87 297 3.0 4.0 0.00 0.00 0.00 42 1014.3
20260507204620 78 99 1.0 0.0 0.00 0.00 0.00 47 1014.8
20260507204550 78 99 1.0 0.0 0.00 0.00 0.00 48 1014.8
20260507204526 78 99 1.0 0.0 0.00 0.00 0.00 47 1014.8
20260507204502 78 99 1.0 0.0 0.00 0.00 0.00 48 1014.8
20260507204420 78 99 1.0 0.0 0.00 0.00 0.00 47 1014.8
20260507204200 79 99 1.0 0.0 0.00 0.00 0.00 46 1014.8
20260507204136 79 99 1.0 0.0 0.00 0.00 0.00 48 1014.8
20260507204128 86 288 1.0 5.0 0.00 0.00 0.00 42 1014.4
20260507204105 79 99 1.0 0.0 0.00 0.00 0.00 48 1014.8
20260507204035 79 99 1.0 0.0 0.00 0.00 0.00 47 1014.8
20260507203945 79 99 1.0 0.0 0.00 0.00 0.00 47 1014.8
20260507203856 79 99 1.0 0.0 0.00 0.00 0.00 47 1014.8
20260507203826 79 99 1.0 1.0 0.00 0.00 0.00 48 1014.8
20260507203756 79 145 5.0 0.0 0.00 0.00 0.00 47 1015.0
20260507203713 79 145 5.0 0.0 0.00 0.00 0.00 47 1015.0
20260507203642 79 145 5.0 0.0 0.00 0.00 0.00 48 1015.0
20260507203625 85 211 2.0 5.0 0.00 0.00 0.00 42 1014.3
20260507203559 78 145 5.0 0.0 0.00 0.00 0.00 48 1015.0
20260507203301 78 145 5.0 0.0 0.00 0.00 0.00 49 1015.0
20260507203123 84 213 3.0 5.0 0.00 0.00 0.00 42 1014.7
20260507203101 78 145 5.0 0.0 0.00 0.00 0.00 47 1015.0
20260507203031 78 145 5.0 0.0 0.00 0.00 0.00 48 1015.0
20260507202954 78 145 5.0 0.0 0.00 0.00 0.00 48 1015.0
20260507202930 78 145 5.0 0.0 0.00 0.00 0.00 48 1015.0
20260507202900 78 145 5.0 0.0 0.00 0.00 0.00 49 1015.0
20260507202830 77 145 5.0 0.0 0.00 0.00 0.00 49 1015.0
20260507202800 77 145 5.0 0.0 0.00 0.00 0.00 48 1015.0
20260507202736 78 145 5.0 7.0 0.00 0.00 0.00 48 1015.0
20260507202659 77 30 2.0 0.0 0.00 0.00 0.00 48 1015.0
20260507202619 84 184 4.0 8.0 0.00 0.00 0.00 42 1014.5
20260507202609 77 30 2.0 0.0 0.00 0.00 0.00 48 1015.0
20260507202526 77 30 2.0 0.0 0.00 0.00 0.00 49 1015.0
20260507202456 77 30 2.0 0.0 0.00 0.00 0.00 48 1015.0
20260507202301 79 30 2.0 0.0 0.00 0.00 0.00 47 1015.0
20260507202231 79 30 2.0 0.0 0.00 0.00 0.00 48 1015.0
20260507202201 78 30 2.0 0.0 0.00 0.00 0.00 48 1015.0
20260507202115 83 228 3.0 6.0 0.00 0.00 0.00 42 1014.5
20260507202111 78 30 2.0 0.0 0.00 0.00 0.00 49 1015.0
20260507202041 77 30 2.0 0.0 0.00 0.00 0.00 50 1015.0
20260507202009 77 30 2.0 0.0 0.00 0.00 0.00 48 1015.0
20260507201802 78 30 2.0 0.0 0.00 0.00 0.00 48 1015.0
20260507201739 77 30 2.0 2.0 0.00 0.00 0.00 48 1015.0
20260507201709 77 154 1.0 0.0 0.00 0.00 0.00 48 1015.0
20260507201645 77 154 1.0 0.0 0.00 0.00 0.00 49 1015.0
20260507201621 77 154 1.0 0.0 0.00 0.00 0.00 50 1015.0
20260507201610 84 70 5.0 5.0 0.00 0.00 0.00 41 1014.7
20260507201551 77 154 1.0 0.0 0.00 0.00 0.00 49 1015.0
20260507201357 77 154 1.0 0.0 0.00 0.00 0.00 48 1015.0
20260507201326 78 154 1.0 0.0 0.00 0.00 0.00 48 1015.0
20260507201256 78 154 1.0 0.0 0.00 0.00 0.00 47 1015.0
20260507201159 79 154 1.0 0.0 0.00 0.00 0.00 47 1015.0
20260507201135 79 154 1.0 0.0 0.00 0.00 0.00 48 1015.0
20260507201112 79 154 1.0 0.0 0.00 0.00 0.00 47 1015.0
20260507201107 84 140 0.0 2.0 0.00 0.00 0.00 42 1014.7
20260507201048 79 154 1.0 0.0 0.00 0.00 0.00 48 1015.0
20260507200743 79 154 1.0 0.0 0.00 0.00 0.00 48 1015.0
20260507200713 79 154 1.0 0.0 0.00 0.00 0.00 47 1015.0
20260507200643 79 154 1.0 1.0 0.00 0.00 0.00 48 1015.0
20260507200606 79 81 0.0 0.0 0.00 0.00 0.00 48 1015.1
20260507200602 84 207 4.0 6.0 0.00 0.00 0.00 41 1014.8
20260507200523 79 81 0.0 0.0 0.00 0.00 0.00 47 1015.1
20260507200453 79 81 0.0 0.0 0.00 0.00 0.00 46 1015.1
20260507200423 79 81 0.0 0.0 0.00 0.00 0.00 47 1015.1
20260507200353 79 81 0.0 0.0 0.00 0.00 0.00 48 1015.1
20260507200310 79 81 0.0 0.0 0.00 0.00 0.00 47 1015.1
20260507200246 79 81 0.0 0.0 0.00 0.00 0.00 47 1015.1
20260507200215 78 81 0.0 0.0 0.00 0.00 0.00 49 1015.1
20260507200145 78 81 0.0 0.0 0.00 0.00 0.00 50 1015.1
20260507200109 77 81 0.0 0.0 0.00 0.00 0.00 50 1015.1
20260507200059 83 246 3.0 3.0 0.00 0.00 0.00 43 1014.9
20260507195940 78 81 0.0 0.0 0.00 0.00 0.00 49 1015.1
20260507195910 77 81 0.0 0.0 0.00 0.00 0.00 49 1015.1
20260507195710 77 81 0.0 0.0 0.00 0.00 0.00 50 1015.1
20260507195640 77 81 0.0 2.0 0.00 0.00 0.00 49 1015.1
20260507195604 77 177 1.0 0.0 0.00 0.00 0.00 49 1015.2
20260507195556 82 183 0.0 7.0 0.00 0.00 0.00 43 1014.8
20260507195053 81 139 4.0 8.0 0.00 0.00 0.00 45 1014.9
20260507195031 76 177 1.0 0.0 0.00 0.00 0.00 51 1015.2
20260507194935 76 177 1.0 0.0 0.00 0.00 0.00 50 1015.2
20260507194845 76 177 1.0 0.0 0.00 0.00 0.00 50 1015.2
20260507194815 76 177 1.0 0.0 0.00 0.00 0.00 50 1015.2
20260507194745 75 177 1.0 0.0 0.00 0.00 0.00 51 1015.2
20260507194702 75 177 1.0 0.0 0.00 0.00 0.00 51 1015.2
20260507194631 75 177 1.0 2.0 0.00 0.00 0.00 51 1015.2
20260507194549 81 227 3.0 11.0 0.00 0.00 0.00 45 1015.1
20260507194418 75 0 2.0 0.0 0.00 0.00 0.00 51 1015.2
20260507194355 75 0 2.0 0.0 0.00 0.00 0.00 50 1015.2
20260507194325 75 0 2.0 0.0 0.00 0.00 0.00 51 1015.2
20260507194241 75 0 2.0 0.0 0.00 0.00 0.00 51 1015.2
20260507194158 76 0 2.0 0.0 0.00 0.00 0.00 51 1015.2
20260507194115 76 0 2.0 0.0 0.00 0.00 0.00 51 1015.2
20260507194057 76 0 2.0 0.0 0.00 0.00 0.00 50 1015.2
20260507194045 82 27 2.0 4.0 0.00 0.00 0.00 43 1015.0
20260507194027 75 0 2.0 0.0 0.00 0.00 0.00 51 1015.2
20260507194004 75 0 2.0 0.0 0.00 0.00 0.00 51 1015.2
20260507193933 76 0 2.0 0.0 0.00 0.00 0.00 51 1015.2
20260507193850 76 0 2.0 0.0 0.00 0.00 0.00 51 1015.2
20260507193807 75 0 2.0 0.0 0.00 0.00 0.00 51 1015.2
20260507193737 75 0 2.0 2.0 0.00 0.00 0.00 51 1015.2
20260507193656 75 160 3.0 0.0 0.00 0.00 0.00 51 1015.4
20260507193633 75 160 3.0 0.0 0.00 0.00 0.00 50 1015.4
20260507193543 82 255 3.0 8.0 0.00 0.00 0.00 43 1014.9
20260507193445 76 160 3.0 0.0 0.00 0.00 0.00 50 1015.4
20260507193251 75 160 3.0 0.0 0.00 0.00 0.00 50 1015.4
20260507193155 75 160 3.0 0.0 0.00 0.00 0.00 51 1015.4
20260507193105 75 160 3.0 0.0 0.00 0.00 0.00 52 1015.4
20260507193040 83 191 2.0 2.0 0.00 0.00 0.00 43 1015.1
20260507193028 75 160 3.0 0.0 0.00 0.00 0.00 52 1015.4
20260507193005 75 160 3.0 0.0 0.00 0.00 0.00 51 1015.4
20260507192941 75 160 3.0 0.0 0.00 0.00 0.00 52 1015.4
20260507192845 75 160 3.0 0.0 0.00 0.00 0.00 51 1015.4
20260507192815 75 160 3.0 5.0 0.00 0.00 0.00 51 1015.4
20260507192548 75 96 2.0 0.0 0.00 0.00 0.00 51 1015.5
20260507192536 80 41 2.0 4.0 0.00 0.00 0.00 45 1015.2
20260507192355 75 96 2.0 0.0 0.00 0.00 0.00 53 1015.5
20260507192200 75 96 2.0 0.0 0.00 0.00 0.00 51 1015.5
20260507192106 75 96 2.0 0.0 0.00 0.00 0.00 52 1015.5
20260507192043 75 96 2.0 0.0 0.00 0.00 0.00 51 1015.5
20260507192033 80 123 2.0 3.0 0.00 0.00 0.00 46 1015.4
20260507192019 75 96 2.0 0.0 0.00 0.00 0.00 52 1015.5
20260507191819 74 96 2.0 0.0 0.00 0.00 0.00 53 1015.5
20260507191729 75 96 2.0 0.0 0.00 0.00 0.00 52 1015.5
20260507191646 75 96 2.0 0.0 0.00 0.00 0.00 51 1015.5
20260507191616 75 96 2.0 2.0 0.00 0.00 0.00 52 1015.5
20260507191546 75 312 2.0 0.0 0.00 0.00 0.00 52 1015.4
20260507191528 80 197 6.0 8.0 0.00 0.00 0.00 45 1015.4
20260507191510 75 312 2.0 0.0 0.00 0.00 0.00 52 1015.4
20260507191446 75 312 2.0 0.0 0.00 0.00 0.00 51 1015.4
20260507191416 74 312 2.0 0.0 0.00 0.00 0.00 52 1015.4
20260507191353 74 312 2.0 0.0 0.00 0.00 0.00 53 1015.4
20260507191323 74 312 2.0 0.0 0.00 0.00 0.00 52 1015.4
20260507191253 74 312 2.0 0.0 0.00 0.00 0.00 51 1015.4
20260507191229 75 312 2.0 0.0 0.00 0.00 0.00 52 1015.4
20260507191205 75 312 2.0 0.0 0.00 0.00 0.00 52 1015.4
20260507191135 75 312 2.0 0.0 0.00 0.00 0.00 51 1015.4
20260507191026 80 159 4.0 6.0 0.00 0.00 0.00 46 1015.5
20260507190941 76 312 2.0 0.0 0.00 0.00 0.00 51 1015.4
20260507190911 76 312 2.0 0.0 0.00 0.00 0.00 50 1015.4
20260507190847 76 312 2.0 0.0 0.00 0.00 0.00 50 1015.4
20260507190824 76 312 2.0 0.0 0.00 0.00 0.00 49 1015.4
20260507190728 76 312 2.0 0.0 0.00 0.00 0.00 50 1015.4
20260507190534 76 11 1.0 0.0 0.00 0.00 0.00 50 1015.5
20260507190523 80 228 2.0 3.0 0.00 0.00 0.00 45 1015.5
20260507190252 75 11 1.0 0.0 0.00 0.00 0.00 51 1015.5
20260507190156 74 11 1.0 0.0 0.00 0.00 0.00 52 1015.5
20260507190120 74 11 1.0 0.0 0.00 0.00 0.00 52 1015.5
20260507190030 75 11 1.0 0.0 0.00 0.00 0.00 52 1015.5
20260507190022 80 15 2.0 4.0 0.00 0.00 0.00 46 1015.5
20260507185836 74 11 1.0 0.0 0.00 0.00 0.00 53 1015.5
20260507185812 74 11 1.0 0.0 0.00 0.00 0.00 53 1015.5
20260507185748 74 11 1.0 0.0 0.00 0.00 0.00 52 1015.5
20260507185705 74 11 1.0 0.0 0.00 0.00 0.00 52 1015.5
20260507185635 74 11 1.0 0.0 0.00 0.00 0.00 52 1015.5
20260507185605 74 11 1.0 3.0 0.00 0.00 0.00 52 1015.5
20260507185528 74 184 2.0 0.0 0.00 0.00 0.00 52 1015.6
20260507185519 79 241 2.0 6.0 0.00 0.00 0.00 46 1015.7
20260507185505 75 184 2.0 0.0 0.00 0.00 0.00 51 1015.6
20260507185435 75 184 2.0 0.0 0.00 0.00 0.00 52 1015.6
20260507185337 74 184 2.0 0.0 0.00 0.00 0.00 52 1015.6
20260507185306 73 184 2.0 0.0 0.00 0.00 0.00 52 1015.6
20260507185236 73 184 2.0 0.0 0.00 0.00 0.00 53 1015.6
20260507185159 73 184 2.0 0.0 0.00 0.00 0.00 53 1015.6
20260507185109 73 184 2.0 0.0 0.00 0.00 0.00 53 1015.6
20260507185046 73 184 2.0 0.0 0.00 0.00 0.00 53 1015.6
20260507185020 73 184 2.0 0.0 0.00 0.00 0.00 54 1015.6
20260507185015 79 69 2.0 3.0 0.00 0.00 0.00 47 1015.8
20260507184846 73 184 2.0 0.0 0.00 0.00 0.00 53 1015.6
20260507184750 73 184 2.0 0.0 0.00 0.00 0.00 54 1015.6
20260507184720 73 184 2.0 4.0 0.00 0.00 0.00 54 1015.6
20260507184649 73 148 1.0 0.0 0.00 0.00 0.00 53 1015.5
20260507184515 73 148 1.0 0.0 0.00 0.00 0.00 54 1015.5
20260507184452 73 148 1.0 0.0 0.00 0.00 0.00 54 1015.5
20260507184421 73 148 1.0 0.0 0.00 0.00 0.00 55 1015.5
20260507184214 72 148 1.0 0.0 0.00 0.00 0.00 56 1015.5
20260507184144 72 148 1.0 0.0 0.00 0.00 0.00 55 1015.5
20260507184114 72 148 1.0 0.0 0.00 0.00 0.00 54 1015.5
20260507184024 72 148 1.0 0.0 0.00 0.00 0.00 54 1015.5
20260507184012 79 106 2.0 4.0 0.00 0.00 0.00 47 1015.7
20260507183726 74 148 1.0 0.0 0.00 0.00 0.00 54 1015.5
20260507183636 73 148 1.0 0.0 0.00 0.00 0.00 54 1015.5
20260507183603 73 148 1.0 3.0 0.00 0.00 0.00 54 1015.5
20260507183533 73 142 1.0 0.0 0.00 0.00 0.00 53 1015.6
20260507183510 73 142 1.0 0.0 0.00 0.00 0.00 53 1015.6
20260507183507 78 44 2.0 3.0 0.00 0.00 0.00 48 1015.9
20260507183440 73 142 1.0 0.0 0.00 0.00 0.00 54 1015.6
20260507183350 72 142 1.0 0.0 0.00 0.00 0.00 55 1015.6
20260507183320 72 142 1.0 0.0 0.00 0.00 0.00 55 1015.6
20260507183256 72 142 1.0 0.0 0.00 0.00 0.00 56 1015.6
20260507183213 72 142 1.0 0.0 0.00 0.00 0.00 55 1015.6
20260507183130 72 142 1.0 0.0 0.00 0.00 0.00 54 1015.6
20260507183005 77 312 0.0 3.0 0.00 0.00 0.00 48 1015.8
20260507182929 73 142 1.0 0.0 0.00 0.00 0.00 53 1015.6
20260507182906 73 142 1.0 0.0 0.00 0.00 0.00 54 1015.6
20260507182842 73 142 1.0 0.0 0.00 0.00 0.00 53 1015.6
20260507182701 73 142 1.0 2.0 0.00 0.00 0.00 54 1015.6
20260507182625 72 163 1.0 0.0 0.00 0.00 0.00 55 1015.5
20260507182535 72 163 1.0 0.0 0.00 0.00 0.00 56 1015.5
20260507182511 71 163 1.0 0.0 0.00 0.00 0.00 56 1015.5
20260507182500 78 128 2.0 4.0 0.00 0.00 0.00 48 1015.8
20260507182245 72 163 1.0 0.0 0.00 0.00 0.00 55 1015.5
20260507182208 72 163 1.0 0.0 0.00 0.00 0.00 55 1015.5
20260507182125 72 163 1.0 0.0 0.00 0.00 0.00 55 1015.5
20260507182108 72 163 1.0 0.0 0.00 0.00 0.00 54 1015.5
20260507181956 77 89 0.0 4.0 0.00 0.00 0.00 49 1015.9
20260507181933 72 163 1.0 0.0 0.00 0.00 0.00 55 1015.5
20260507181902 72 163 1.0 0.0 0.00 0.00 0.00 56 1015.5
20260507181831 72 163 1.0 0.0 0.00 0.00 0.00 56 1015.5
20260507181808 72 163 1.0 0.0 0.00 0.00 0.00 55 1015.5
20260507181542 72 108 2.0 0.0 0.00 0.00 0.00 56 1015.6
20260507181458 72 108 2.0 0.0 0.00 0.00 0.00 55 1015.6
20260507181453 79 137 6.0 6.0 0.00 0.00 0.00 47 1015.8
20260507181435 72 108 2.0 0.0 0.00 0.00 0.00 55 1015.6
20260507181411 73 108 2.0 0.0 0.00 0.00 0.00 55 1015.6
20260507181335 72 108 2.0 0.0 0.00 0.00 0.00 55 1015.6
20260507181121 72 108 2.0 0.0 0.00 0.00 0.00 55 1015.6
20260507180950 79 151 0.0 4.0 0.00 0.00 0.00 49 1015.9
20260507180854 71 108 2.0 0.0 0.00 0.00 0.00 56 1015.6
20260507180824 71 108 2.0 0.0 0.00 0.00 0.00 57 1015.6
20260507180755 71 108 2.0 0.0 0.00 0.00 0.00 57 1015.6
20260507180724 70 108 2.0 0.0 0.00 0.00 0.00 57 1015.6
20260507180655 70 108 2.0 4.0 0.00 0.00 0.00 57 1015.6
20260507180618 71 91 2.0 0.0 0.00 0.00 0.00 57 1015.7
20260507180601 71 91 2.0 0.0 0.00 0.00 0.00 56 1015.7
20260507180543 72 91 2.0 0.0 0.00 0.00 0.00 56 1015.7
20260507180500 71 91 2.0 0.0 0.00 0.00 0.00 56 1015.7
20260507180447 78 17 1.0 5.0 0.00 0.00 0.00 50 1015.9
20260507180305 71 91 2.0 0.0 0.00 0.00 0.00 57 1015.7
20260507180222 71 91 2.0 0.0 0.00 0.00 0.00 57 1015.7
20260507180120 71 91 2.0 0.0 0.00 0.00 0.00 56 1015.7
20260507180008 71 91 2.0 0.0 0.00 0.00 0.00 57 1015.7
20260507175943 77 155 0.0 4.0 0.00 0.00 0.00 49 1015.9
20260507175925 70 91 2.0 0.0 0.00 0.00 0.00 57 1015.7
20260507175842 70 91 2.0 0.0 0.00 0.00 0.00 57 1015.7
20260507175818 70 91 2.0 0.0 0.00 0.00 0.00 57 1015.7
20260507175748 70 91 2.0 0.0 0.00 0.00 0.00 59 1015.7
20260507175718 69 91 2.0 2.0 0.00 0.00 0.00 60 1015.7
20260507175641 69 153 2.0 0.0 0.00 0.00 0.00 59 1015.6
20260507175552 69 153 2.0 0.0 0.00 0.00 0.00 60 1015.6
20260507175502 69 153 2.0 0.0 0.00 0.00 0.00 60 1015.6
20260507175439 76 228 1.0 4.0 0.00 0.00 0.00 50 1015.8
20260507175408 70 153 2.0 0.0 0.00 0.00 0.00 58 1015.6
20260507175318 70 153 2.0 0.0 0.00 0.00 0.00 58 1015.6
20260507175248 69 153 2.0 0.0 0.00 0.00 0.00 59 1015.6
20260507175218 70 153 2.0 0.0 0.00 0.00 0.00 58 1015.6
20260507175148 70 153 2.0 0.0 0.00 0.00 0.00 58 1015.6
20260507175116 70 153 2.0 0.0 0.00 0.00 0.00 59 1015.6
20260507175017 69 153 2.0 0.0 0.00 0.00 0.00 60 1015.6
20260507174948 69 153 2.0 0.0 0.00 0.00 0.00 60 1015.6
20260507174937 75 149 2.0 5.0 0.00 0.00 0.00 51 1016.2
20260507174924 69 153 2.0 0.0 0.00 0.00 0.00 60 1015.6
20260507174854 69 153 2.0 0.0 0.00 0.00 0.00 59 1015.6
20260507174824 69 153 2.0 3.0 0.00 0.00 0.00 60 1015.6
20260507174754 69 89 0.0 0.0 0.00 0.00 0.00 59 1015.7
20260507174717 70 89 0.0 0.0 0.00 0.00 0.00 59 1015.7
20260507174641 69 89 0.0 0.0 0.00 0.00 0.00 60 1015.7
20260507174617 69 89 0.0 0.0 0.00 0.00 0.00 59 1015.7
20260507174540 69 89 0.0 0.0 0.00 0.00 0.00 60 1015.7
20260507174434 76 215 3.0 4.0 0.00 0.00 0.00 51 1015.9
20260507174246 70 89 0.0 0.0 0.00 0.00 0.00 59 1015.7
20260507174156 69 89 0.0 0.0 0.00 0.00 0.00 59 1015.7
20260507174132 69 89 0.0 0.0 0.00 0.00 0.00 59 1015.7
20260507173951 69 89 0.0 0.0 0.00 0.00 0.00 61 1015.7
20260507173932 75 38 2.0 3.0 0.00 0.00 0.00 51 1015.9
20260507173921 69 89 0.0 0.0 0.00 0.00 0.00 59 1015.7
20260507173714 69 186 0.0 0.0 0.00 0.00 0.00 60 1015.7
20260507173514 68 186 0.0 0.0 0.00 0.00 0.00 61 1015.7
20260507173436 68 186 0.0 0.0 0.00 0.00 0.00 61 1015.7
20260507173428 75 141 2.0 4.0 0.00 0.00 0.00 51 1016.0
20260507173405 68 186 0.0 0.0 0.00 0.00 0.00 61 1015.7
20260507173341 68 186 0.0 0.0 0.00 0.00 0.00 60 1015.7
20260507173311 68 186 0.0 0.0 0.00 0.00 0.00 61 1015.7
20260507173241 68 186 0.0 0.0 0.00 0.00 0.00 62 1015.7
20260507173158 67 186 0.0 0.0 0.00 0.00 0.00 62 1015.7
20260507173115 67 186 0.0 0.0 0.00 0.00 0.00 62 1015.7
20260507173038 67 186 0.0 0.0 0.00 0.00 0.00 62 1015.7
20260507173004 67 186 0.0 0.0 0.00 0.00 0.00 63 1015.7
20260507172940 67 186 0.0 0.0 0.00 0.00 0.00 62 1015.7
20260507172925 75 156 2.0 3.0 0.00 0.00 0.00 51 1016.2
20260507172917 67 186 0.0 0.0 0.00 0.00 0.00 62 1015.7
20260507172846 67 186 0.0 0.0 0.00 0.00 0.00 63 1015.7
20260507172816 67 186 0.0 1.0 0.00 0.00 0.00 63 1015.7
20260507172740 67 212 3.0 0.0 0.00 0.00 0.00 63 1015.7
20260507172703 67 212 3.0 0.0 0.00 0.00 0.00 63 1015.7
20260507172626 67 212 3.0 0.0 0.00 0.00 0.00 63 1015.7
20260507172550 67 212 3.0 0.0 0.00 0.00 0.00 62 1015.7
20260507172506 67 212 3.0 0.0 0.00 0.00 0.00 63 1015.7
20260507172430 66 212 3.0 0.0 0.00 0.00 0.00 64 1015.7
20260507172422 75 158 0.0 4.0 0.00 0.00 0.00 51 1016.0
20260507172400 66 212 3.0 0.0 0.00 0.00 0.00 63 1015.7
20260507172213 67 212 3.0 0.0 0.00 0.00 0.00 63 1015.7
20260507172141 67 212 3.0 0.0 0.00 0.00 0.00 62 1015.7
20260507172110 67 212 3.0 0.0 0.00 0.00 0.00 62 1015.7
20260507172039 67 212 3.0 0.0 0.00 0.00 0.00 63 1015.7
20260507171954 67 212 3.0 3.0 0.00 0.00 0.00 62 1015.7
20260507171936 67 175 0.0 0.0 0.00 0.00 0.00 62 1015.8
20260507171918 75 224 0.0 3.0 0.00 0.00 0.00 52 1016.2
20260507171808 67 175 0.0 0.0 0.00 0.00 0.00 63 1015.8
20260507171633 67 175 0.0 0.0 0.00 0.00 0.00 62 1015.8
20260507171616 68 175 0.0 0.0 0.00 0.00 0.00 61 1015.8
20260507171539 68 175 0.0 0.0 0.00 0.00 0.00 61 1015.8
20260507171414 75 187 3.0 4.0 0.00 0.00 0.00 51 1016.3
20260507171320 67 175 0.0 0.0 0.00 0.00 0.00 62 1015.8
20260507171302 67 175 0.0 0.0 0.00 0.00 0.00 62 1015.8
20260507171053 68 150 2.0 0.0 0.00 0.00 0.00 61 1015.8
20260507171016 68 150 2.0 0.0 0.00 0.00 0.00 61 1015.8
20260507170939 68 150 2.0 0.0 0.00 0.00 0.00 61 1015.8
20260507170915 68 150 2.0 0.0 0.00 0.00 0.00 62 1015.8
20260507170912 76 89 0.0 2.0 0.00 0.00 0.00 50 1016.2
20260507170852 67 150 2.0 0.0 0.00 0.00 0.00 62 1015.8
20260507170816 67 150 2.0 0.0 0.00 0.00 0.00 63 1015.8
20260507170752 67 150 2.0 0.0 0.00 0.00 0.00 62 1015.8
20260507170545 67 150 2.0 0.0 0.00 0.00 0.00 63 1015.8
20260507170522 67 150 2.0 0.0 0.00 0.00 0.00 64 1015.8
20260507170458 66 150 2.0 0.0 0.00 0.00 0.00 64 1015.8
20260507170434 66 150 2.0 0.0 0.00 0.00 0.00 63 1015.8
20260507170410 67 150 2.0 2.0 0.00 0.00 0.00 64 1015.8
20260507170408 75 123 2.0 2.0 0.00 0.00 0.00 52 1016.3
20260507170340 67 89 0.0 0.0 0.00 0.00 0.00 64 1015.7
20260507170322 66 89 0.0 0.0 0.00 0.00 0.00 64 1015.7
20260507170311 66 89 0.0 0.0 0.00 0.00 0.00 64 1015.7
20260507170143 66 89 0.0 0.0 0.00 0.00 0.00 65 1015.7
20260507165956 66 89 0.0 0.0 0.00 0.00 0.00 64 1015.7
20260507165905 75 47 4.0 4.0 0.00 0.00 0.00 52 1016.5
20260507165747 67 89 0.0 0.0 0.00 0.00 0.00 63 1015.7
20260507165710 67 89 0.0 0.0 0.00 0.00 0.00 62 1015.7
20260507165627 67 89 0.0 0.0 0.00 0.00 0.00 63 1015.7
20260507165610 68 89 0.0 0.0 0.00 0.00 0.00 62 1015.7
20260507165429 68 99 2.0 0.0 0.00 0.00 0.00 61 1015.7
20260507165412 67 99 2.0 0.0 0.00 0.00 0.00 63 1015.7
20260507165400 73 60 0.0 4.0 0.00 0.00 0.00 53 1016.4
20260507165348 67 99 2.0 0.0 0.00 0.00 0.00 63 1015.7
20260507165220 66 99 2.0 0.0 0.00 0.00 0.00 63 1015.7
20260507165203 66 99 2.0 0.0 0.00 0.00 0.00 64 1015.7
20260507165139 66 99 2.0 0.0 0.00 0.00 0.00 63 1015.7
20260507165115 67 99 2.0 0.0 0.00 0.00 0.00 63 1015.7
20260507165051 67 99 2.0 0.0 0.00 0.00 0.00 62 1015.7
20260507165028 68 99 2.0 0.0 0.00 0.00 0.00 61 1015.7
20260507164958 68 99 2.0 0.0 0.00 0.00 0.00 61 1015.7
20260507164934 68 99 2.0 0.0 0.00 0.00 0.00 61 1015.7
20260507164856 73 185 2.0 3.0 0.00 0.00 0.00 53 1016.3
20260507164734 67 99 2.0 0.0 0.00 0.00 0.00 62 1015.7
20260507164710 67 99 2.0 0.0 0.00 0.00 0.00 62 1015.7
20260507164646 67 99 2.0 2.0 0.00 0.00 0.00 62 1015.7
20260507164603 67 43 2.0 0.0 0.00 0.00 0.00 63 1015.6
20260507164547 67 43 2.0 0.0 0.00 0.00 0.00 63 1015.6
20260507164528 66 43 2.0 0.0 0.00 0.00 0.00 63 1015.6
20260507164503 67 43 2.0 0.0 0.00 0.00 0.00 63 1015.6
20260507164440 67 43 2.0 0.0 0.00 0.00 0.00 62 1015.6
20260507164416 67 43 2.0 0.0 0.00 0.00 0.00 63 1015.6
20260507164354 72 158 2.0 4.0 0.00 0.00 0.00 54 1016.3
20260507164352 68 43 2.0 0.0 0.00 0.00 0.00 61 1015.6
20260507164328 68 43 2.0 0.0 0.00 0.00 0.00 61 1015.6
20260507164305 68 43 2.0 0.0 0.00 0.00 0.00 62 1015.6
20260507164103 67 43 2.0 0.0 0.00 0.00 0.00 62 1015.6
20260507163851 73 175 1.0 2.0 0.00 0.00 0.00 54 1016.6
20260507163739 67 52 2.0 0.0 0.00 0.00 0.00 63 1015.7
20260507163715 67 52 2.0 0.0 0.00 0.00 0.00 64 1015.7
20260507163522 66 52 2.0 0.0 0.00 0.00 0.00 65 1015.7
20260507163458 65 52 2.0 0.0 0.00 0.00 0.00 66 1015.7
20260507163415 65 52 2.0 0.0 0.00 0.00 0.00 66 1015.7
20260507163348 73 210 1.0 2.0 0.00 0.00 0.00 53 1016.5
20260507163129 64 52 2.0 0.0 0.00 0.00 0.00 67 1015.7
20260507163104 64 52 2.0 0.0 0.00 0.00 0.00 68 1015.7
20260507163038 64 52 2.0 0.0 0.00 0.00 0.00 68 1015.7
20260507163013 64 52 2.0 0.0 0.00 0.00 0.00 67 1015.7
20260507162955 64 52 2.0 0.0 0.00 0.00 0.00 67 1015.7
20260507162931 64 52 2.0 2.0 0.00 0.00 0.00 68 1015.7
20260507162845 71 209 0.0 4.0 0.00 0.00 0.00 56 1016.4
20260507162841 64 88 2.0 0.0 0.00 0.00 0.00 68 1015.6
20260507162653 63 88 2.0 0.0 0.00 0.00 0.00 69 1015.6
20260507162610 63 88 2.0 0.0 0.00 0.00 0.00 70 1015.6
20260507162526 63 88 2.0 0.0 0.00 0.00 0.00 70 1015.6
20260507162449 63 88 2.0 0.0 0.00 0.00 0.00 70 1015.6
20260507162419 63 88 2.0 0.0 0.00 0.00 0.00 70 1015.6
20260507162348 63 88 2.0 0.0 0.00 0.00 0.00 70 1015.6
20260507162340 72 81 2.0 4.0 0.00 0.00 0.00 54 1016.8
20260507162306 62 88 2.0 0.0 0.00 0.00 0.00 71 1015.6
20260507162220 62 88 2.0 0.0 0.00 0.00 0.00 71 1015.6
20260507162156 62 88 2.0 0.0 0.00 0.00 0.00 72 1015.6
20260507162132 62 88 2.0 2.0 0.00 0.00 0.00 72 1015.6
20260507161838 72 77 1.0 3.0 0.00 0.00 0.00 56 1016.3
20260507161819 60 81 2.0 0.0 0.00 0.00 0.00 74 1015.4
20260507161802 60 81 2.0 0.0 0.00 0.00 0.00 74 1015.4
20260507161738 60 81 2.0 0.0 0.00 0.00 0.00 75 1015.4
20260507161647 60 81 2.0 0.0 0.00 0.00 0.00 75 1015.4
20260507161443 59 81 2.0 0.0 0.00 0.00 0.00 76 1015.4
20260507161426 59 81 2.0 0.0 0.00 0.00 0.00 76 1015.4
20260507161334 72 21 1.0 2.0 0.00 0.00 0.00 56 1016.3
20260507161304 59 81 2.0 0.0 0.00 0.00 0.00 75 1015.4
20260507161240 60 81 2.0 2.0 0.00 0.00 0.00 75 1015.4
20260507161150 60 73 2.0 0.0 0.00 0.00 0.00 75 1015.5
20260507161120 60 73 2.0 0.0 0.00 0.00 0.00 75 1015.5
20260507161049 60 73 2.0 0.0 0.00 0.00 0.00 75 1015.5
20260507161032 60 73 2.0 0.0 0.00 0.00 0.00 76 1015.5
20260507161005 59 73 2.0 0.0 0.00 0.00 0.00 76 1015.5
20260507160929 59 73 2.0 0.0 0.00 0.00 0.00 76 1015.5
20260507160911 59 73 2.0 0.0 0.00 0.00 0.00 76 1015.5
20260507160831 72 133 2.0 2.0 0.00 0.00 0.00 56 1016.4
20260507160723 59 73 2.0 0.0 0.00 0.00 0.00 77 1015.5
20260507160653 59 73 2.0 0.0 0.00 0.00 0.00 77 1015.5
20260507160635 58 73 2.0 0.0 0.00 0.00 0.00 78 1015.5
20260507160326 70 44 0.0 3.0 0.00 0.00 0.00 57 1016.4
20260507160310 58 7 2.0 0.0 0.00 0.00 0.00 80 1015.5
20260507160246 57 7 2.0 0.0 0.00 0.00 0.00 80 1015.5
20260507160222 57 7 2.0 0.0 0.00 0.00 0.00 81 1015.5
20260507160131 57 7 2.0 0.0 0.00 0.00 0.00 81 1015.5
20260507160107 57 7 2.0 0.0 0.00 0.00 0.00 81 1015.5
20260507160030 56 7 2.0 0.0 0.00 0.00 0.00 81 1015.5
20260507155939 56 7 2.0 0.0 0.00 0.00 0.00 82 1015.5
20260507155902 56 7 2.0 0.0 0.00 0.00 0.00 82 1015.5
20260507155831 56 7 2.0 0.0 0.00 0.00 0.00 82 1015.5
20260507155823 69 242 2.0 4.0 0.00 0.00 0.00 60 1016.6
20260507155752 56 7 2.0 0.0 0.00 0.00 0.00 82 1015.5
20260507155722 56 7 2.0 0.0 0.00 0.00 0.00 82 1015.5
20260507155705 56 7 2.0 0.0 0.00 0.00 0.00 82 1015.5
20260507155641 56 7 2.0 3.0 0.00 0.00 0.00 82 1015.5
20260507155558 56 32 1.0 0.0 0.00 0.00 0.00 82 1015.0
20260507155515 56 32 1.0 0.0 0.00 0.00 0.00 82 1015.0
20260507155451 56 32 1.0 0.0 0.00 0.00 0.00 82 1015.0
20260507155412 56 32 1.0 0.0 0.00 0.00 0.00 82 1015.0
20260507155336 56 32 1.0 0.0 0.00 0.00 0.00 83 1015.0
20260507155319 69 113 0.0 3.0 0.00 0.00 0.00 60 1016.5
20260507155313 56 32 1.0 0.0 0.00 0.00 0.00 83 1015.0
20260507155249 56 32 1.0 0.0 0.00 0.00 0.00 83 1015.0
20260507155108 55 32 1.0 0.0 0.00 0.00 0.00 83 1015.0
20260507155044 55 32 1.0 0.0 0.00 0.00 0.00 84 1015.0
20260507155020 55 32 1.0 0.0 0.00 0.00 0.00 84 1015.0
20260507154846 55 71 1.0 0.0 0.00 0.00 0.00 84 1015.2
20260507154815 69 202 0.0 4.0 0.00 0.00 0.00 59 1016.5
20260507154645 55 71 1.0 0.0 0.00 0.00 0.00 85 1015.2
20260507154352 54 71 1.0 0.0 0.00 0.00 0.00 86 1015.2
20260507154313 69 72 1.0 4.0 0.00 0.00 0.00 59 1016.6
20260507154204 54 71 1.0 0.0 0.00 0.00 0.00 86 1015.2
20260507154147 54 71 1.0 0.0 0.00 0.00 0.00 86 1015.2
20260507154123 54 71 1.0 2.0 0.00 0.00 0.00 86 1015.2
20260507154009 54 85 2.0 0.0 0.00 0.00 0.00 86 1015.3
20260507153937 54 85 2.0 0.0 0.00 0.00 0.00 86 1015.3
20260507153914 54 85 2.0 0.0 0.00 0.00 0.00 86 1015.3
20260507153844 54 85 2.0 0.0 0.00 0.00 0.00 86 1015.3
20260507153809 68 164 2.0 3.0 0.00 0.00 0.00 61 1016.7
20260507153649 54 85 2.0 0.0 0.00 0.00 0.00 86 1015.3
20260507153455 54 85 2.0 0.0 0.00 0.00 0.00 86 1015.3
20260507153431 54 85 2.0 3.0 0.00 0.00 0.00 86 1015.3
20260507153348 54 70 2.0 0.0 0.00 0.00 0.00 86 1015.3
20260507153325 54 70 2.0 0.0 0.00 0.00 0.00 86 1015.3
20260507153306 67 208 0.0 3.0 0.00 0.00 0.00 62 1016.7
20260507153255 54 70 2.0 0.0 0.00 0.00 0.00 86 1015.3
20260507152917 54 70 2.0 0.0 0.00 0.00 0.00 86 1015.3
20260507152841 54 70 2.0 0.0 0.00 0.00 0.00 86 1015.3
20260507152811 54 70 2.0 0.0 0.00 0.00 0.00 86 1015.3
20260507152802 67 175 1.0 3.0 0.00 0.00 0.00 63 1016.7
20260507152754 54 70 2.0 0.0 0.00 0.00 0.00 86 1015.3
20260507152730 54 70 2.0 0.0 0.00 0.00 0.00 87 1015.3
20260507152709 54 70 2.0 0.0 0.00 0.00 0.00 87 1015.3
20260507152644 54 70 2.0 2.0 0.00 0.00 0.00 87 1015.3
20260507152601 54 24 2.0 0.0 0.00 0.00 0.00 87 1015.1
20260507152530 54 24 2.0 0.0 0.00 0.00 0.00 87 1015.1
20260507152500 54 24 2.0 0.0 0.00 0.00 0.00 87 1015.1
20260507152417 54 24 2.0 0.0 0.00 0.00 0.00 87 1015.1
20260507152341 54 24 2.0 0.0 0.00 0.00 0.00 87 1015.1
20260507152317 54 24 2.0 0.0 0.00 0.00 0.00 87 1015.1
20260507152259 67 185 0.0 3.0 0.00 0.00 0.00 62 1016.5
20260507152038 54 24 2.0 3.0 0.00 0.00 0.00 87 1015.1
20260507152004 54 27 1.0 0.0 0.00 0.00 0.00 87 1015.0
20260507151940 53 27 1.0 0.0 0.00 0.00 0.00 87 1015.0
20260507151916 53 27 1.0 0.0 0.00 0.00 0.00 87 1015.0
20260507151846 53 27 1.0 0.0 0.00 0.00 0.00 87 1015.0
20260507151816 53 27 1.0 0.0 0.00 0.00 0.00 87 1015.0
20260507151800 53 27 1.0 0.0 0.00 0.00 0.00 87 1015.0
20260507151755 68 170 2.0 2.0 0.00 0.00 0.00 62 1016.8
20260507151736 53 27 1.0 0.0 0.00 0.00 0.00 88 1015.0
20260507151706 53 27 1.0 0.0 0.00 0.00 0.00 88 1015.0
20260507151251 68 112 0.0 2.0 0.00 0.00 0.00 62 1016.6
20260507150748 68 184 0.0 2.0 0.00 0.00 0.00 61 1016.7
20260507150245 67 106 0.0 2.0 0.00 0.00 0.00 63 1016.8
20260507145741 66 178 2.0 4.0 0.00 0.00 0.00 64 1016.6
20260507145238 67 197 1.0 2.0 0.00 0.00 0.00 63 1016.7
20260507144735 66 89 0.0 2.0 0.00 0.00 0.00 63 1016.7
20260507144232 68 96 1.0 2.0 0.00 0.00 0.00 61 1016.5
20260507143729 67 132 3.0 3.0 0.00 0.00 0.00 63 1016.4
20260507143226 67 120 1.0 2.0 0.00 0.00 0.00 62 1016.7
20260507142722 66 80 1.0 2.0 0.00 0.00 0.00 64 1016.5
20260507142219 64 76 2.0 2.0 0.00 0.00 0.00 68 1016.5
20260507141714 63 76 1.0 2.0 0.00 0.00 0.00 70 1016.4
20260507141212 62 82 2.0 2.0 0.00 0.00 0.00 71 1016.4
20260507140708 60 103 2.0 2.0 0.00 0.00 0.00 74 1016.4
20260507140206 59 62 2.0 2.0 0.00 0.00 0.00 76 1016.3
20260507135703 60 85 1.0 2.0 0.00 0.00 0.00 75 1016.4
20260507135200 59 56 2.0 2.0 0.00 0.00 0.00 78 1016.0
20260507134657 57 54 2.0 4.0 0.00 0.00 0.00 81 1016.2
20260507134152 56 15 2.0 3.0 0.00 0.00 0.00 82 1016.2
20260507133648 56 25 2.0 4.0 0.00 0.00 0.00 82 1016.0
20260507133146 55 67 0.0 3.0 0.00 0.00 0.00 83 1016.2
20260507132643 55 100 2.0 3.0 0.00 0.00 0.00 85 1016.0
20260507132139 54 28 0.0 2.0 0.00 0.00 0.00 86 1016.2
20260507131636 54 67 2.0 2.0 0.00 0.00 0.00 86 1016.3
20260507131134 54 105 0.0 3.0 0.00 0.00 0.00 86 1016.3
20260507130630 54 79 0.0 2.0 0.00 0.00 0.00 86 1016.2
20260507130128 54 31 2.0 3.0 0.00 0.00 0.00 86 1016.0
20260507125627 54 147 1.0 3.0 0.00 0.00 0.00 87 1016.0
20260507125124 54 19 2.0 3.0 0.00 0.00 0.00 87 1016.0
20260507124620 53 46 2.0 3.0 0.00 0.00 0.00 87 1016.2
20260507124118 53 12 1.0 3.0 0.00 0.00 0.00 88 1015.7
20260507123616 53 60 0.0 1.0 0.00 0.00 0.00 88 1016.0
20260507123113 53 66 0.0 2.0 0.00 0.00 0.00 88 1015.8
20260507122608 53 55 0.0 2.0 0.00 0.00 0.00 88 1015.9
20260507122104 53 77 0.0 2.0 0.00 0.00 0.00 88 1015.9
20260507121559 54 69 0.0 2.0 0.00 0.00 0.00 87 1015.9